Time,TemperatureF,DewpointF,PressureIn,WindDirection,WindDirectionDegrees,WindSpeedMPH,WindSpeedGustMPH,Humidity,HourlyPrecipIn,Conditions,Clouds,dailyrainin,SoftwareType,DateUTC
2013-01-25 00:00:00,21.4,6.9,30.32,NE,53,3.5,3.5,53,0.00,,SCT,0.00,WeatherDisplay:10.37,2013-01-25 05:00:00,
2013-01-25 00:03:00,21.4,6.9,30.32,NE,53,3.5,3.5,53,0.00,,SCT,0.00,WeatherDisplay:10.37,2013-01-25 05:03:00,
2013-01-25 00:04:00,21.4,6.9,30.32,NE,53,3.5,3.5,53,0.00,,SCT,0.00,WeatherDisplay:10.37,2013-01-25 05:04:00,
2013-01-25 00:07:00,21.6,7.1,30.32,NE,53,3.5,3.5,53,0.00,,SCT,0.00,WeatherDisplay:10.37,2013-01-25 05:07:00,
2013-01-25 00:09:00,21.6,7.1,30.32,NE,53,3.5,3.5,53,0.00,,SCT,0.00,WeatherDisplay:10.37,2013-01-25 05:09:00,
2013-01-25 00:11:00,21.6,7.1,30.32,NE,53,3.5,3.5,53,0.00,,SCT,0.00,WeatherDisplay:10.37,2013-01-25 05:11:00,
2013-01-25 00:14:00,21.6,7.1,30.32,NE,53,3.5,3.5,53,0.00,,SCT,0.00,WeatherDisplay:10.37,2013-01-25 05:14:00,
2013-01-25 00:16:00,21.6,7.1,30.31,NE,53,2.3,2.3,53,0.00,,SCT,0.00,WeatherDisplay:10.37,2013-01-25 05:16:00,
2013-01-25 00:17:00,21.6,7.1,30.31,NE,53,2.3,2.3,53,0.00,,SCT,0.00,WeatherDisplay:10.37,2013-01-25 05:17:00,
2013-01-25 00:19:00,21.6,7.1,30.31,NE,53,3.5,3.5,53,0.00,,SCT,0.00,WeatherDisplay:10.37,2013-01-25 05:19:00,
2013-01-25 00:21:00,21.6,6.7,30.31,NE,53,4.6,4.6,52,0.00,,SCT,0.00,WeatherDisplay:10.37,2013-01-25 05:21:00,
2013-01-25 00:23:00,21.6,7.1,30.31,NE,53,3.5,3.5,53,0.00,,SCT,0.00,WeatherDisplay:10.37,2013-01-25 05:23:00,
2013-01-25 00:25:00,21.6,7.1,30.31,NE,53,2.3,2.3,53,0.00,,SCT,0.00,WeatherDisplay:10.37,2013-01-25 05:25:00,
2013-01-25 00:26:00,21.4,6.9,30.31,NE,53,2.3,2.3,53,0.00,,SCT,0.00,WeatherDisplay:10.37,2013-01-25 05:26:00,
2013-01-25 00:31:00,21.4,6.9,30.31,NE,53,3.5,3.5,53,0.00,,SCT,0.00,WeatherDisplay:10.37,2013-01-25 05:31:00,
2013-01-25 00:32:00,21.4,6.5,30.31,NE,53,3.5,3.5,52,0.00,,SCT,0.00,WeatherDisplay:10.37,2013-01-25 05:32:00,
2013-01-25 00:33:00,21.4,6.5,30.31,NE,53,0.0,0.0,52,0.00,,SCT,0.00,WeatherDisplay:10.37,2013-01-25 05:33:00,
2013-01-25 00:36:00,21.4,6.9,30.31,NE,53,0.0,0.0,53,0.00,,SCT,0.00,WeatherDisplay:10.37,2013-01-25 05:36:00,
2013-01-25 00:38:00,21.4,6.9,30.31,NE,53,0.0,0.0,53,0.00,,SCT,0.00,WeatherDisplay:10.37,2013-01-25 05:38:00,
2013-01-25 00:40:00,21.4,6.9,30.31,NE,53,0.0,0.0,53,0.00,,SCT,0.00,WeatherDisplay:10.37,2013-01-25 05:40:00,
2013-01-25 00:42:00,21.4,6.9,30.31,NE,53,0.0,0.0,53,0.00,,SCT,0.00,WeatherDisplay:10.37,2013-01-25 05:42:00,
2013-01-25 00:45:00,21.4,6.9,30.31,NE,53,0.0,0.0,53,0.00,,SCT,0.00,WeatherDisplay:10.37,2013-01-25 05:45:00,
2013-01-25 00:47:00,21.3,6.8,30.31,NE,53,0.0,0.0,53,0.00,,SCT,0.00,WeatherDisplay:10.37,2013-01-25 05:47:00,
2013-01-25 00:49:00,21.3,6.4,30.31,NE,53,0.0,0.0,52,0.00,,SCT,0.00,WeatherDisplay:10.37,2013-01-25 05:49:00,
2013-01-25 00:52:00,21.3,6.8,30.31,NE,53,0.0,0.0,53,0.00,,SCT,0.00,WeatherDisplay:10.37,2013-01-25 05:52:00,
2013-01-25 00:56:00,21.4,6.9,30.31,NE,53,0.0,0.0,53,0.00,,SCT,0.00,WeatherDisplay:10.37,2013-01-25 05:56:00,
2013-01-25 00:57:00,21.4,6.9,30.31,NE,53,0.0,0.0,53,0.00,,SCT,0.00,WeatherDisplay:10.37,2013-01-25 05:57:00,
2013-01-25 00:58:00,21.4,6.9,30.31,NE,53,0.0,0.0,53,0.00,,SCT,0.00,WeatherDisplay:10.37,2013-01-25 05:58:00,
2013-01-25 01:00:00,21.6,7.1,30.31,NE,55,0.0,0.0,53,0.00,,SCT,0.00,WeatherDisplay:10.37,2013-01-25 06:00:00,
2013-01-25 01:02:00,21.6,7.1,30.31,NE,55,0.0,0.0,53,0.00,,SCT,0.00,WeatherDisplay:10.37,2013-01-25 06:02:00,
2013-01-25 01:07:00,21.8,7.3,30.31,NE,55,0.0,0.0,53,0.00,,SCT,0.00,WeatherDisplay:10.37,2013-01-25 06:07:00,
2013-01-25 01:08:00,21.8,7.3,30.30,NE,55,0.0,0.0,53,0.00,,SCT,0.00,WeatherDisplay:10.37,2013-01-25 06:08:00,
2013-01-25 01:11:00,21.8,7.3,30.31,NE,55,0.0,0.0,53,0.00,,SCT,0.00,WeatherDisplay:10.37,2013-01-25 06:11:00,
2013-01-25 01:12:00,21.8,7.3,30.31,NE,55,0.0,0.0,53,0.00,,SCT,0.00,WeatherDisplay:10.37,2013-01-25 06:12:00,
2013-01-25 01:15:00,21.6,7.1,30.31,NE,55,0.0,0.0,53,0.00,,SCT,0.00,WeatherDisplay:10.37,2013-01-25 06:15:00,
2013-01-25 01:17:00,21.6,7.1,30.31,NE,55,0.0,0.0,53,0.00,,SCT,0.00,WeatherDisplay:10.37,2013-01-25 06:17:00,
2013-01-25 01:19:00,21.6,7.1,30.31,NE,55,0.0,0.0,53,0.00,,SCT,0.00,WeatherDisplay:10.37,2013-01-25 06:19:00,
2013-01-25 01:24:00,21.4,6.9,30.31,NE,55,0.0,0.0,53,0.00,,SCT,0.00,WeatherDisplay:10.37,2013-01-25 06:24:00,
2013-01-25 01:25:00,21.4,6.9,30.31,NE,55,0.0,0.0,53,0.00,,SCT,0.00,WeatherDisplay:10.37,2013-01-25 06:25:00,
2013-01-25 01:29:00,21.3,7.2,30.31,NE,55,0.0,0.0,54,0.00,,SCT,0.00,WeatherDisplay:10.37,2013-01-25 06:29:00,
2013-01-25 01:34:00,21.3,7.2,30.31,NE,55,0.0,0.0,54,0.00,,SCT,0.00,WeatherDisplay:10.37,2013-01-25 06:34:00,
2013-01-25 01:39:00,21.1,7.0,30.30,NE,55,0.0,0.0,54,0.00,,SCT,0.00,WeatherDisplay:10.37,2013-01-25 06:39:00,
2013-01-25 01:40:00,21.1,7.0,30.30,NE,55,0.0,0.0,54,0.00,,SCT,0.00,WeatherDisplay:10.37,2013-01-25 06:40:00,
2013-01-25 01:44:00,21.1,7.0,30.30,NE,55,0.0,0.0,54,0.00,,SCT,0.00,WeatherDisplay:10.37,2013-01-25 06:44:00,
2013-01-25 01:45:00,21.1,7.0,30.29,NE,55,0.0,0.0,54,0.00,,SCT,0.00,WeatherDisplay:10.37,2013-01-25 06:45:00,
2013-01-25 01:46:00,21.1,7.0,30.29,NE,55,0.0,0.0,54,0.00,,SCT,0.00,WeatherDisplay:10.37,2013-01-25 06:46:00,
2013-01-25 01:50:00,21.0,6.9,30.29,NE,55,0.0,0.0,54,0.00,,SCT,0.00,WeatherDisplay:10.37,2013-01-25 06:50:00,
2013-01-25 01:51:00,21.0,6.9,30.29,NE,55,0.0,0.0,54,0.00,,SCT,0.00,WeatherDisplay:10.37,2013-01-25 06:51:00,
2013-01-25 01:56:00,21.0,6.9,30.29,NE,55,0.0,0.0,54,0.00,,SCT,0.00,WeatherDisplay:10.37,2013-01-25 06:56:00,
2013-01-25 01:57:00,21.0,6.9,30.29,NE,55,0.0,0.0,54,0.00,,SCT,0.00,WeatherDisplay:10.37,2013-01-25 06:57:00,
2013-01-25 02:01:00,21.0,6.9,30.29,NE,55,0.0,0.0,54,0.00,,SCT,0.00,WeatherDisplay:10.37,2013-01-25 07:01:00,
2013-01-25 02:06:00,21.0,6.9,30.29,NE,55,0.0,0.0,54,0.00,,SCT,0.00,WeatherDisplay:10.37,2013-01-25 07:06:00,
2013-01-25 02:07:00,21.0,6.9,30.29,NE,55,0.0,0.0,54,0.00,,SCT,0.00,WeatherDisplay:10.37,2013-01-25 07:07:00,
2013-01-25 02:09:00,21.0,6.9,30.29,NE,55,0.0,0.0,54,0.00,,SCT,0.00,WeatherDisplay:10.37,2013-01-25 07:09:00,
2013-01-25 02:14:00,21.0,6.9,30.29,NE,55,0.0,0.0,54,0.00,,SCT,0.00,WeatherDisplay:10.37,2013-01-25 07:14:00,
2013-01-25 02:16:00,21.0,6.9,30.29,NE,55,0.0,0.0,54,0.00,,SCT,0.00,WeatherDisplay:10.37,2013-01-25 07:16:00,
2013-01-25 02:18:00,21.1,7.0,30.28,NE,55,0.0,0.0,54,0.00,,SCT,0.00,WeatherDisplay:10.37,2013-01-25 07:18:00,
2013-01-25 02:21:00,21.1,7.0,30.27,NE,55,0.0,0.0,54,0.00,,SCT,0.00,WeatherDisplay:10.37,2013-01-25 07:21:00,
2013-01-25 02:22:00,21.1,7.4,30.27,NE,55,0.0,0.0,55,0.00,,SCT,0.00,WeatherDisplay:10.37,2013-01-25 07:22:00,
2013-01-25 02:24:00,21.1,7.4,30.27,NE,55,0.0,0.0,55,0.00,,SCT,0.00,WeatherDisplay:10.37,2013-01-25 07:24:00,
2013-01-25 02:27:00,21.3,7.6,30.27,NE,55,0.0,0.0,55,0.00,,SCT,0.00,WeatherDisplay:10.37,2013-01-25 07:27:00,
2013-01-25 02:29:00,21.4,7.7,30.26,NE,55,0.0,0.0,55,0.00,,SCT,0.00,WeatherDisplay:10.37,2013-01-25 07:29:00,
2013-01-25 02:31:00,21.4,7.7,30.26,NE,55,0.0,0.0,55,0.00,,SCT,0.00,WeatherDisplay:10.37,2013-01-25 07:31:00,
2013-01-25 02:33:00,21.4,7.7,30.26,NE,55,0.0,0.0,55,0.00,,SCT,0.00,WeatherDisplay:10.37,2013-01-25 07:33:00,
2013-01-25 02:34:00,21.4,7.3,30.26,NE,55,0.0,0.0,54,0.00,,SCT,0.00,WeatherDisplay:10.37,2013-01-25 07:34:00,
2013-01-25 02:38:00,21.6,7.9,30.26,NE,55,0.0,0.0,55,0.00,,SCT,0.00,WeatherDisplay:10.37,2013-01-25 07:38:00,
2013-01-25 02:39:00,21.6,7.9,30.26,NE,55,0.0,0.0,55,0.00,,SCT,0.00,WeatherDisplay:10.37,2013-01-25 07:39:00,
2013-01-25 02:44:00,21.6,7.9,30.25,NE,55,0.0,0.0,55,0.00,,SCT,0.00,WeatherDisplay:10.37,2013-01-25 07:44:00,
2013-01-25 02:45:00,21.6,7.9,30.25,NE,55,0.0,0.0,55,0.00,,SCT,0.00,WeatherDisplay:10.37,2013-01-25 07:45:00,
2013-01-25 02:49:00,21.6,7.9,30.25,NE,55,0.0,0.0,55,0.00,,SCT,0.00,WeatherDisplay:10.37,2013-01-25 07:49:00,
2013-01-25 02:50:00,21.6,7.9,30.25,NE,55,0.0,0.0,55,0.00,,SCT,0.00,WeatherDisplay:10.37,2013-01-25 07:50:00,
2013-01-25 02:51:00,21.6,7.9,30.25,NE,55,0.0,0.0,55,0.00,,SCT,0.00,WeatherDisplay:10.37,2013-01-25 07:51:00,
2013-01-25 02:52:00,21.8,8.1,30.25,NE,55,0.0,0.0,55,0.00,,SCT,0.00,WeatherDisplay:10.37,2013-01-25 07:52:00,
2013-01-25 02:56:00,21.8,8.1,30.25,NE,55,0.0,0.0,55,0.00,,SCT,0.00,WeatherDisplay:10.37,2013-01-25 07:56:00,
2013-01-25 02:57:00,21.8,8.1,30.25,NE,55,0.0,0.0,55,0.00,,SCT,0.00,WeatherDisplay:10.37,2013-01-25 07:57:00,
2013-01-25 02:58:00,21.8,8.1,30.25,NE,55,0.0,0.0,55,0.00,,SCT,0.00,WeatherDisplay:10.37,2013-01-25 07:58:00,
2013-01-25 03:02:00,21.9,8.6,30.26,NE,55,0.0,0.0,56,0.00,,SCT,0.00,WeatherDisplay:10.37,2013-01-25 08:02:00,
2013-01-25 03:03:00,21.9,8.6,30.25,NE,55,0.0,0.0,56,0.00,,SCT,0.00,WeatherDisplay:10.37,2013-01-25 08:03:00,
2013-01-25 03:07:00,22.1,8.8,30.25,NE,55,0.0,0.0,56,0.00,,SCT,0.00,WeatherDisplay:10.37,2013-01-25 08:07:00,
2013-01-25 03:08:00,22.1,9.2,30.26,NE,54,0.0,0.0,57,0.00,,SCT,0.00,WeatherDisplay:10.37,2013-01-25 08:08:00,
2013-01-25 03:12:00,22.2,9.3,30.26,NE,54,0.0,0.0,57,0.00,,SCT,0.00,WeatherDisplay:10.37,2013-01-25 08:12:00,
2013-01-25 03:13:00,22.2,8.9,30.26,NE,54,0.0,0.0,56,0.00,,SCT,0.00,WeatherDisplay:10.37,2013-01-25 08:13:00,
2013-01-25 03:16:00,22.2,9.3,30.26,NE,54,0.0,0.0,57,0.00,,SCT,0.00,WeatherDisplay:10.37,2013-01-25 08:16:00,
2013-01-25 03:18:00,22.4,9.4,30.26,NE,54,0.0,0.0,57,0.00,,SCT,0.00,WeatherDisplay:10.37,2013-01-25 08:18:00,
2013-01-25 03:21:00,22.4,9.1,30.26,NE,54,0.0,0.0,56,0.00,,SCT,0.00,WeatherDisplay:10.37,2013-01-25 08:21:00,
2013-01-25 03:22:00,22.4,9.1,30.26,NE,54,0.0,0.0,56,0.00,,SCT,0.00,WeatherDisplay:10.37,2013-01-25 08:22:00,
2013-01-25 03:24:00,22.4,9.4,30.26,NE,54,0.0,0.0,57,0.00,,SCT,0.00,WeatherDisplay:10.37,2013-01-25 08:24:00,
2013-01-25 03:27:00,22.4,9.4,30.26,NE,54,0.0,0.0,57,0.00,,SCT,0.00,WeatherDisplay:10.37,2013-01-25 08:27:00,
2013-01-25 03:28:00,22.4,9.4,30.26,NE,54,0.0,0.0,57,0.00,,SCT,0.00,WeatherDisplay:10.37,2013-01-25 08:28:00,
2013-01-25 03:30:00,22.5,9.1,30.26,NE,54,0.0,0.0,56,0.00,,SCT,0.00,WeatherDisplay:10.37,2013-01-25 08:30:00,
2013-01-25 03:31:00,22.5,9.1,30.26,NE,55,0.0,0.0,56,0.00,,SCT,0.00,WeatherDisplay:10.37,2013-01-25 08:31:00,
2013-01-25 03:37:00,22.5,9.5,30.26,NE,55,0.0,0.0,57,0.00,,SCT,0.00,WeatherDisplay:10.37,2013-01-25 08:37:00,
2013-01-25 03:40:00,22.5,9.5,30.26,NE,55,0.0,0.0,57,0.00,,SCT,0.00,WeatherDisplay:10.37,2013-01-25 08:40:00,
2013-01-25 03:42:00,22.5,9.5,30.26,NE,55,0.0,0.0,57,0.00,,SCT,0.00,WeatherDisplay:10.37,2013-01-25 08:42:00,
2013-01-25 03:45:00,22.5,9.5,30.26,NE,55,0.0,0.0,57,0.00,,SCT,0.00,WeatherDisplay:10.37,2013-01-25 08:45:00,
2013-01-25 03:47:00,22.5,9.1,30.26,NE,55,0.0,0.0,56,0.00,,SCT,0.00,WeatherDisplay:10.37,2013-01-25 08:47:00,
2013-01-25 03:50:00,22.5,9.1,30.25,NE,55,0.0,0.0,56,0.00,,SCT,0.00,WeatherDisplay:10.37,2013-01-25 08:50:00,
2013-01-25 03:52:00,22.5,9.1,30.25,NE,55,0.0,0.0,56,0.00,,SCT,0.00,WeatherDisplay:10.37,2013-01-25 08:52:00,
2013-01-25 03:55:00,22.5,9.5,30.25,NE,55,0.0,0.0,57,0.00,,SCT,0.00,WeatherDisplay:10.37,2013-01-25 08:55:00,
2013-01-25 03:57:00,22.5,9.5,30.24,NE,55,0.0,0.0,57,0.00,,SCT,0.00,WeatherDisplay:10.37,2013-01-25 08:57:00,
2013-01-25 04:00:00,22.5,9.5,30.24,NE,55,0.0,0.0,57,0.00,,SCT,0.00,WeatherDisplay:10.37,2013-01-25 09:00:00,
2013-01-25 04:04:00,22.5,9.5,30.24,NE,54,0.0,0.0,57,0.00,,SCT,0.00,WeatherDisplay:10.37,2013-01-25 09:04:00,
2013-01-25 04:05:00,22.7,9.7,30.24,NE,55,0.0,0.0,57,0.00,,SCT,0.00,WeatherDisplay:10.37,2013-01-25 09:05:00,
2013-01-25 04:06:00,22.7,9.7,30.24,NE,54,0.0,0.0,57,0.00,,SCT,0.00,WeatherDisplay:10.37,2013-01-25 09:06:00,
2013-01-25 04:10:00,22.7,9.7,30.24,NE,55,0.0,0.0,57,0.00,,SCT,0.00,WeatherDisplay:10.37,2013-01-25 09:10:00,
2013-01-25 04:12:00,22.7,9.7,30.24,NE,55,0.0,0.0,57,0.00,,SCT,0.00,WeatherDisplay:10.37,2013-01-25 09:12:00,
2013-01-25 04:15:00,22.9,9.9,30.23,NE,54,0.0,0.0,57,0.00,,SCT,0.00,WeatherDisplay:10.37,2013-01-25 09:15:00,
2013-01-25 04:17:00,22.9,10.3,30.23,NE,55,0.0,0.0,58,0.00,,SCT,0.00,WeatherDisplay:10.37,2013-01-25 09:17:00,
2013-01-25 04:20:00,23.0,10.4,30.23,NE,55,0.0,0.0,58,0.00,,SCT,0.00,WeatherDisplay:10.37,2013-01-25 09:20:00,
2013-01-25 04:21:00,23.0,10.4,30.23,NE,55,0.0,0.0,58,0.00,,SCT,0.00,WeatherDisplay:10.37,2013-01-25 09:21:00,
2013-01-25 04:22:00,23.0,10.4,30.23,NE,55,0.0,0.0,58,0.00,,SCT,0.00,WeatherDisplay:10.37,2013-01-25 09:22:00,
2013-01-25 04:26:00,23.2,10.6,30.23,NE,55,0.0,0.0,58,0.00,,SCT,0.00,WeatherDisplay:10.37,2013-01-25 09:26:00,
2013-01-25 04:27:00,23.2,10.6,30.23,NE,55,0.0,0.0,58,0.00,,SCT,0.00,WeatherDisplay:10.37,2013-01-25 09:27:00,
2013-01-25 04:28:00,23.2,10.6,30.23,NE,55,0.0,0.0,58,0.00,,SCT,0.00,WeatherDisplay:10.37,2013-01-25 09:28:00,
2013-01-25 04:31:00,23.3,10.7,30.23,NE,55,0.0,0.0,58,0.00,,SCT,0.00,WeatherDisplay:10.37,2013-01-25 09:31:00,
2013-01-25 04:34:00,23.3,10.7,30.23,NE,55,0.0,0.0,58,0.00,,SCT,0.00,WeatherDisplay:10.37,2013-01-25 09:34:00,
2013-01-25 04:37:00,23.5,10.9,30.23,NE,54,0.0,0.0,58,0.00,,SCT,0.00,WeatherDisplay:10.37,2013-01-25 09:37:00,
2013-01-25 04:39:00,23.5,10.9,30.23,NE,55,0.0,0.0,58,0.00,,SCT,0.00,WeatherDisplay:10.37,2013-01-25 09:39:00,
2013-01-25 04:43:00,23.5,10.9,30.23,NE,55,0.0,0.0,58,0.00,,SCT,0.00,WeatherDisplay:10.37,2013-01-25 09:43:00,
2013-01-25 04:44:00,23.6,11.0,30.23,NE,55,0.0,0.0,58,0.00,,SCT,0.00,WeatherDisplay:10.37,2013-01-25 09:44:00,
2013-01-25 04:47:00,23.6,11.0,30.23,NE,54,0.0,0.0,58,0.00,,SCT,0.00,WeatherDisplay:10.37,2013-01-25 09:47:00,
2013-01-25 04:49:00,23.6,11.0,30.23,NE,55,0.0,0.0,58,0.00,,SCT,0.00,WeatherDisplay:10.37,2013-01-25 09:49:00,
2013-01-25 04:52:00,23.6,10.6,30.23,NE,55,0.0,0.0,57,0.00,,SCT,0.00,WeatherDisplay:10.37,2013-01-25 09:52:00,
2013-01-25 04:54:00,23.8,10.8,30.23,NE,55,0.0,0.0,57,0.00,,SCT,0.00,WeatherDisplay:10.37,2013-01-25 09:54:00,
2013-01-25 04:57:00,23.8,10.8,30.23,NE,55,0.0,0.0,57,0.00,,SCT,0.00,WeatherDisplay:10.37,2013-01-25 09:57:00,
2013-01-25 05:01:00,23.9,11.3,30.22,NE,54,0.0,0.0,58,0.00,,SCT,0.00,WeatherDisplay:10.37,2013-01-25 10:01:00,
2013-01-25 05:02:00,23.9,11.3,30.22,NE,55,0.0,0.0,58,0.00,,SCT,0.00,WeatherDisplay:10.37,2013-01-25 10:02:00,
2013-01-25 05:04:00,24.1,11.4,30.23,NE,55,0.0,0.0,58,0.00,,SCT,0.00,WeatherDisplay:10.37,2013-01-25 10:04:00,
2013-01-25 05:07:00,24.1,11.4,30.23,NE,54,0.0,0.0,58,0.00,,SCT,0.00,WeatherDisplay:10.37,2013-01-25 10:07:00,
2013-01-25 05:10:00,24.2,11.1,30.23,NE,55,0.0,0.0,57,0.00,,SCT,0.00,WeatherDisplay:10.37,2013-01-25 10:10:00,
2013-01-25 05:12:00,24.2,11.5,30.22,NE,55,0.0,0.0,58,0.00,,SCT,0.00,WeatherDisplay:10.37,2013-01-25 10:12:00,
2013-01-25 05:13:00,24.2,11.5,30.22,NE,55,0.0,0.0,58,0.00,,SCT,0.00,WeatherDisplay:10.37,2013-01-25 10:13:00,
2013-01-25 05:17:00,24.4,11.7,30.21,NE,54,0.0,0.0,58,0.00,,SCT,0.00,WeatherDisplay:10.37,2013-01-25 10:17:00,
2013-01-25 05:18:00,24.4,11.7,30.21,NE,55,0.0,0.0,58,0.00,,SCT,0.00,WeatherDisplay:10.37,2013-01-25 10:18:00,
2013-01-25 05:22:00,24.5,11.8,30.20,NE,55,0.0,0.0,58,0.00,,SCT,0.00,WeatherDisplay:10.37,2013-01-25 10:22:00,
2013-01-25 05:24:00,24.7,12.0,30.21,NE,55,0.0,0.0,58,0.00,,SCT,0.00,WeatherDisplay:10.37,2013-01-25 10:24:00,
2013-01-25 05:29:00,24.8,12.1,30.21,NE,55,0.0,0.0,58,0.00,,SCT,0.00,WeatherDisplay:10.37,2013-01-25 10:29:00,
2013-01-25 05:30:00,24.8,12.1,30.20,NE,55,0.0,0.0,58,0.00,,SCT,0.00,WeatherDisplay:10.37,2013-01-25 10:30:00,
2013-01-25 05:34:00,25.0,12.3,30.20,NE,55,0.0,0.0,58,0.00,,SCT,0.00,WeatherDisplay:10.37,2013-01-25 10:34:00,
2013-01-25 05:36:00,25.0,12.3,30.20,NE,55,0.0,0.0,58,0.00,,SCT,0.00,WeatherDisplay:10.37,2013-01-25 10:36:00,
2013-01-25 05:41:00,25.1,12.4,30.19,NE,55,0.0,0.0,58,0.00,,SCT,0.00,WeatherDisplay:10.37,2013-01-25 10:41:00,
2013-01-25 05:46:00,25.3,12.6,30.20,NE,55,0.0,0.0,58,0.00,,SCT,0.00,WeatherDisplay:10.37,2013-01-25 10:46:00,
2013-01-25 05:47:00,25.3,12.6,30.20,NE,55,0.0,0.0,58,0.00,,SCT,0.00,WeatherDisplay:10.37,2013-01-25 10:47:00,
2013-01-25 05:48:00,25.3,12.6,30.20,NE,55,0.0,0.0,58,0.00,,SCT,0.00,WeatherDisplay:10.37,2013-01-25 10:48:00,
2013-01-25 05:53:00,25.3,12.6,30.19,NE,55,0.0,0.0,58,0.00,,SCT,0.00,WeatherDisplay:10.37,2013-01-25 10:53:00,
2013-01-25 05:58:00,25.4,12.7,30.20,NE,55,0.0,0.0,58,0.00,,SCT,0.00,WeatherDisplay:10.37,2013-01-25 10:58:00,
2013-01-25 06:03:00,25.4,12.7,30.19,NE,55,0.0,0.0,58,0.00,,SCT,0.00,WeatherDisplay:10.37,2013-01-25 11:03:00,
2013-01-25 06:06:00,25.6,12.9,30.19,NE,54,0.0,0.0,58,0.00,,SCT,0.00,WeatherDisplay:10.37,2013-01-25 11:06:00,
2013-01-25 06:08:00,25.6,12.9,30.18,NE,54,0.0,0.0,58,0.00,,SCT,0.00,WeatherDisplay:10.37,2013-01-25 11:08:00,
2013-01-25 06:12:00,25.6,12.9,30.20,NE,54,0.0,0.0,58,0.00,,SCT,0.00,WeatherDisplay:10.37,2013-01-25 11:12:00,
2013-01-25 06:13:00,25.7,12.9,30.20,NE,54,0.0,0.0,58,0.00,,SCT,0.00,WeatherDisplay:10.37,2013-01-25 11:13:00,
2013-01-25 06:18:00,25.7,12.9,30.20,NE,54,0.0,0.0,58,0.00,,SCT,0.00,WeatherDisplay:10.37,2013-01-25 11:18:00,
2013-01-25 06:21:00,25.8,13.0,30.20,NE,54,0.0,0.0,58,0.00,,SCT,0.00,WeatherDisplay:10.37,2013-01-25 11:21:00,
2013-01-25 06:22:00,25.8,13.0,30.20,NE,54,0.0,0.0,58,0.00,,SCT,0.00,WeatherDisplay:10.37,2013-01-25 11:22:00,
2013-01-25 06:23:00,25.8,13.0,30.20,NE,54,0.0,0.0,58,0.00,,SCT,0.00,WeatherDisplay:10.37,2013-01-25 11:23:00,
2013-01-25 06:27:00,26.0,13.2,30.20,NE,54,0.0,0.0,58,0.00,,SCT,0.00,WeatherDisplay:10.37,2013-01-25 11:27:00,
2013-01-25 06:30:00,26.0,13.6,30.19,NE,54,0.0,0.0,59,0.00,,SCT,0.00,WeatherDisplay:10.37,2013-01-25 11:30:00,
2013-01-25 06:35:00,26.1,13.7,30.20,NE,54,0.0,0.0,59,0.00,,SCT,0.00,WeatherDisplay:10.37,2013-01-25 11:35:00,
2013-01-25 06:38:00,26.3,14.3,30.20,NE,54,0.0,0.0,60,0.00,,SCT,0.00,WeatherDisplay:10.37,2013-01-25 11:38:00,
2013-01-25 06:40:00,26.3,14.3,30.20,NE,54,0.0,0.0,60,0.00,,SCT,0.00,WeatherDisplay:10.37,2013-01-25 11:40:00,
2013-01-25 06:43:00,26.3,13.9,30.20,NE,54,0.0,0.0,59,0.00,,SCT,0.00,WeatherDisplay:10.37,2013-01-25 11:43:00,
2013-01-25 06:46:00,26.4,14.4,30.21,NW,326,0.0,0.0,60,0.00,,SCT,0.00,WeatherDisplay:10.37,2013-01-25 11:46:00,
2013-01-25 06:47:00,26.4,14.4,30.22,NW,315,0.0,0.0,60,0.00,,SCT,0.00,WeatherDisplay:10.37,2013-01-25 11:47:00,
2013-01-25 06:50:00,26.4,14.4,30.21,West,262,4.6,4.6,60,0.00,,SCT,0.00,WeatherDisplay:10.37,2013-01-25 11:50:00,
2013-01-25 06:51:00,26.4,14.4,30.21,West,262,4.0,4.0,60,0.00,,SCT,0.00,WeatherDisplay:10.37,2013-01-25 11:51:00,
2013-01-25 06:53:00,26.4,14.4,30.20,West,259,3.5,3.5,60,0.00,,SCT,0.00,WeatherDisplay:10.37,2013-01-25 11:53:00,
2013-01-25 06:56:00,26.4,14.4,30.21,West,259,3.5,3.5,60,0.00,,SCT,0.00,WeatherDisplay:10.37,2013-01-25 11:56:00,
2013-01-25 06:58:00,26.4,14.4,30.21,West,259,3.5,3.5,60,0.00,,SCT,0.00,WeatherDisplay:10.37,2013-01-25 11:58:00,
2013-01-25 06:59:00,26.4,14.8,30.21,West,259,3.5,3.5,61,0.00,,SCT,0.00,WeatherDisplay:10.37,2013-01-25 11:59:00,
2013-01-25 07:00:00,26.4,14.8,30.21,West,259,3.5,3.5,61,0.00,,SCT,0.00,WeatherDisplay:10.37,2013-01-25 12:00:00,
2013-01-25 07:04:00,26.6,15.3,30.20,WSW,244,4.0,4.0,62,0.00,,SCT,0.00,WeatherDisplay:10.37,2013-01-25 12:04:00,
2013-01-25 07:05:00,26.6,15.3,30.20,SW,221,4.6,4.6,62,0.00,,SCT,0.00,WeatherDisplay:10.37,2013-01-25 12:05:00,
2013-01-25 07:06:00,26.6,15.3,30.20,SW,221,4.6,4.6,62,0.00,,SCT,0.00,WeatherDisplay:10.37,2013-01-25 12:06:00,
2013-01-25 07:09:00,26.6,15.3,30.20,SSW,212,3.5,3.5,62,0.00,CLR,SCT,0.00,WeatherDisplay:10.37,2013-01-25 12:09:00,
2013-01-25 07:11:00,26.4,15.1,30.20,SSW,212,3.5,3.5,62,0.00,CLR,SCT,0.00,WeatherDisplay:10.37,2013-01-25 12:11:00,
2013-01-25 07:12:00,26.4,15.1,30.20,SSW,212,4.6,4.6,62,0.00,CLR,SCT,0.00,WeatherDisplay:10.37,2013-01-25 12:12:00,
2013-01-25 07:14:00,26.4,15.1,30.20,SSW,211,3.5,3.5,62,0.00,CLR,SCT,0.00,WeatherDisplay:10.37,2013-01-25 12:14:00,
2013-01-25 07:17:00,26.4,15.1,30.19,SSW,211,3.5,3.5,62,0.00,CLR,SCT,0.00,WeatherDisplay:10.37,2013-01-25 12:17:00,
2013-01-25 07:18:00,26.4,15.1,30.19,SSW,211,2.3,2.3,62,0.00,CLR,SCT,0.00,WeatherDisplay:10.37,2013-01-25 12:18:00,
2013-01-25 07:19:00,26.4,15.1,30.19,SSW,211,0.0,0.0,62,0.00,CLR,SCT,0.00,WeatherDisplay:10.37,2013-01-25 12:19:00,
2013-01-25 07:22:00,26.4,15.1,30.18,SSW,211,0.0,0.0,62,0.00,CLR,SCT,0.00,WeatherDisplay:10.37,2013-01-25 12:22:00,
2013-01-25 07:24:00,26.4,15.1,30.18,SSW,211,0.0,0.0,62,0.00,CLR,SCT,0.00,WeatherDisplay:10.37,2013-01-25 12:24:00,
2013-01-25 07:26:00,26.4,15.1,30.18,SSW,211,0.0,0.0,62,0.00,CLR,SCT,0.00,WeatherDisplay:10.37,2013-01-25 12:26:00,
2013-01-25 07:27:00,26.4,15.1,30.19,SSW,211,0.0,0.0,62,0.00,CLR,SCT,0.00,WeatherDisplay:10.37,2013-01-25 12:27:00,
2013-01-25 07:28:00,26.4,15.1,30.19,SSW,211,0.0,0.0,62,0.00,CLR,SCT,0.00,WeatherDisplay:10.37,2013-01-25 12:28:00,
2013-01-25 07:33:00,26.4,14.8,30.19,SSW,211,0.0,0.0,61,0.00,CLR,SCT,0.00,WeatherDisplay:10.37,2013-01-25 12:33:00,
2013-01-25 07:35:00,26.4,14.8,30.18,SSW,211,0.0,0.0,61,0.00,CLR,SCT,0.00,WeatherDisplay:10.37,2013-01-25 12:35:00,
2013-01-25 07:36:00,26.4,14.8,30.18,SSW,211,0.0,0.0,61,0.00,CLR,SCT,0.00,WeatherDisplay:10.37,2013-01-25 12:36:00,
2013-01-25 07:38:00,26.4,14.8,30.19,SSW,211,0.0,0.0,61,0.00,CLR,SCT,0.00,WeatherDisplay:10.37,2013-01-25 12:38:00,
2013-01-25 07:40:00,26.4,15.1,30.19,SSW,211,0.0,0.0,62,0.00,CLR,SCT,0.00,WeatherDisplay:10.37,2013-01-25 12:40:00,
2013-01-25 07:41:00,26.4,15.1,30.19,SSW,211,0.0,0.0,62,0.00,CLR,SCT,0.00,WeatherDisplay:10.37,2013-01-25 12:41:00,
2013-01-25 07:42:00,26.4,15.1,30.19,SSW,211,0.0,0.0,62,0.00,CLR,SCT,0.00,WeatherDisplay:10.37,2013-01-25 12:42:00,
2013-01-25 07:43:00,26.4,15.1,30.18,SSW,211,0.0,0.0,62,0.00,CLR,SCT,0.00,WeatherDisplay:10.37,2013-01-25 12:43:00,
2013-01-25 07:45:00,26.4,15.1,30.18,SSW,211,0.0,0.0,62,0.00,CLR,SCT,0.00,WeatherDisplay:10.37,2013-01-25 12:45:00,
2013-01-25 07:46:00,26.4,15.1,30.18,SSW,211,0.0,0.0,62,0.00,CLR,SCT,0.00,WeatherDisplay:10.37,2013-01-25 12:46:00,
2013-01-25 07:47:00,26.4,15.1,30.19,SSW,211,0.0,0.0,62,0.00,CLR,SCT,0.00,WeatherDisplay:10.37,2013-01-25 12:47:00,
2013-01-25 07:50:00,26.4,15.1,30.18,SSW,211,0.0,0.0,62,0.00,CLR,SCT,0.00,WeatherDisplay:10.37,2013-01-25 12:50:00,
2013-01-25 07:52:00,26.4,15.1,30.18,SSW,211,0.0,0.0,62,0.00,CLR,SCT,0.00,WeatherDisplay:10.37,2013-01-25 12:52:00,
2013-01-25 07:53:00,26.4,15.1,30.18,SSW,211,0.0,0.0,62,0.00,CLR,SCT,0.00,WeatherDisplay:10.37,2013-01-25 12:53:00,
2013-01-25 07:56:00,26.4,15.1,30.17,SSW,211,0.0,0.0,62,0.00,CLR,SCT,0.00,WeatherDisplay:10.37,2013-01-25 12:56:00,
2013-01-25 07:58:00,26.4,15.1,30.17,SSW,211,0.0,0.0,62,0.00,CLR,SCT,0.00,WeatherDisplay:10.37,2013-01-25 12:58:00,
2013-01-25 07:59:00,26.4,15.1,30.17,SSW,211,0.0,0.0,62,0.00,CLR,SCT,0.00,WeatherDisplay:10.37,2013-01-25 12:59:00,
2013-01-25 08:02:00,26.6,15.3,30.18,SSW,211,0.0,0.0,62,0.00,CLR,SCT,0.00,WeatherDisplay:10.37,2013-01-25 13:02:00,
2013-01-25 08:03:00,26.6,15.3,30.18,SSW,211,0.0,0.0,62,0.00,CLR,SCT,0.00,WeatherDisplay:10.37,2013-01-25 13:03:00,
2013-01-25 08:04:00,26.6,15.7,30.17,SSW,211,0.0,0.0,63,0.00,CLR,SCT,0.00,WeatherDisplay:10.37,2013-01-25 13:04:00,
2013-01-25 08:05:00,26.6,15.7,30.17,SSW,211,0.0,0.0,63,0.00,CLR,SCT,0.00,WeatherDisplay:10.37,2013-01-25 13:05:00,
2013-01-25 08:08:00,26.6,15.7,30.17,SSW,211,0.0,0.0,63,0.00,CLR,SCT,0.00,WeatherDisplay:10.37,2013-01-25 13:08:00,
2013-01-25 08:09:00,26.6,15.7,30.17,SSW,211,0.0,0.0,63,0.00,CLR,SCT,0.00,WeatherDisplay:10.37,2013-01-25 13:09:00,
2013-01-25 08:11:00,26.6,16.1,30.17,SSW,211,0.0,0.0,64,0.00,CLR,SCT,0.00,WeatherDisplay:10.37,2013-01-25 13:11:00,
2013-01-25 08:13:00,26.7,16.1,30.17,SSW,211,0.0,0.0,64,0.00,CLR,SCT,0.00,WeatherDisplay:10.37,2013-01-25 13:13:00,
2013-01-25 08:18:00,26.7,16.1,30.17,South,176,0.0,0.0,64,0.00,CLR,SCT,0.00,WeatherDisplay:10.37,2013-01-25 13:18:00,
2013-01-25 08:19:00,26.7,16.5,30.17,South,176,0.0,0.0,65,0.00,CLR,SCT,0.00,WeatherDisplay:10.37,2013-01-25 13:19:00,
2013-01-25 08:21:00,26.7,16.5,30.16,South,175,0.0,0.0,65,0.00,CLR,SCT,0.00,WeatherDisplay:10.37,2013-01-25 13:21:00,
2013-01-25 08:23:00,26.6,16.4,30.16,South,175,0.0,0.0,65,0.00,CLR,SCT,0.00,WeatherDisplay:10.37,2013-01-25 13:23:00,
2013-01-25 08:26:00,26.6,16.4,30.15,South,187,0.0,0.0,65,0.00,CLR,SCT,0.00,WeatherDisplay:10.37,2013-01-25 13:26:00,
2013-01-25 08:28:00,26.6,16.4,30.15,South,180,0.0,0.0,65,0.00,CLR,SCT,0.00,WeatherDisplay:10.37,2013-01-25 13:28:00,
2013-01-25 08:29:00,26.6,16.4,30.15,South,180,0.0,0.0,65,0.00,CLR,SCT,0.00,WeatherDisplay:10.37,2013-01-25 13:29:00,
2013-01-25 08:31:00,26.6,16.4,30.16,South,180,0.0,0.0,65,0.00,CLR,SCT,0.00,WeatherDisplay:10.37,2013-01-25 13:31:00,
2013-01-25 08:34:00,26.6,16.4,30.15,South,180,0.0,0.0,65,0.00,CLR,SCT,0.00,WeatherDisplay:10.37,2013-01-25 13:34:00,
2013-01-25 08:36:00,26.6,16.4,30.15,South,180,0.0,0.0,65,0.00,CLR,SCT,0.00,WeatherDisplay:10.37,2013-01-25 13:36:00,
2013-01-25 08:37:00,26.6,16.4,30.15,South,180,0.0,0.0,65,0.00,CLR,SCT,0.00,WeatherDisplay:10.37,2013-01-25 13:37:00,
2013-01-25 08:41:00,26.6,16.4,30.15,South,180,0.0,0.0,65,0.00,CLR,SCT,0.00,WeatherDisplay:10.37,2013-01-25 13:41:00,
2013-01-25 08:42:00,26.6,16.4,30.15,South,180,0.0,0.0,65,0.00,CLR,SCT,0.00,WeatherDisplay:10.37,2013-01-25 13:42:00,
2013-01-25 08:45:00,26.6,16.4,30.14,South,180,0.0,0.0,65,0.00,CLR,SCT,0.00,WeatherDisplay:10.37,2013-01-25 13:45:00,
2013-01-25 08:48:00,26.7,16.5,30.15,South,180,0.0,0.0,65,0.00,CLR,SCT,0.00,WeatherDisplay:10.37,2013-01-25 13:48:00,
2013-01-25 08:51:00,26.7,16.9,30.15,South,180,0.0,0.0,66,0.00,CLR,SCT,0.00,WeatherDisplay:10.37,2013-01-25 13:51:00,
2013-01-25 08:54:00,26.7,16.9,30.15,South,180,0.0,0.0,66,0.00,CLR,SCT,0.00,WeatherDisplay:10.37,2013-01-25 13:54:00,
2013-01-25 08:56:00,26.7,16.9,30.15,South,180,0.0,0.0,66,0.00,CLR,SCT,0.00,WeatherDisplay:10.37,2013-01-25 13:56:00,
2013-01-25 08:57:00,26.9,17.0,30.15,South,180,0.0,0.0,66,0.00,CLR,SCT,0.00,WeatherDisplay:10.37,2013-01-25 13:57:00,
2013-01-25 09:00:00,26.9,16.7,30.15,South,180,0.0,0.0,65,0.00,CLR,SCT,0.00,WeatherDisplay:10.37,2013-01-25 14:00:00,
2013-01-25 09:01:00,26.9,16.7,30.15,South,180,0.0,0.0,65,0.00,CLR,SCT,0.00,WeatherDisplay:10.37,2013-01-25 14:01:00,
2013-01-25 09:03:00,26.9,17.0,30.15,South,180,0.0,0.0,66,0.00,CLR,SCT,0.00,WeatherDisplay:10.37,2013-01-25 14:03:00,
2013-01-25 09:05:00,27.0,17.5,30.15,South,180,0.0,0.0,67,0.00,CLR,SCT,0.00,WeatherDisplay:10.37,2013-01-25 14:05:00,
2013-01-25 09:07:00,27.0,17.5,30.15,South,180,0.0,0.0,67,0.00,CLR,SCT,0.00,WeatherDisplay:10.37,2013-01-25 14:07:00,
2013-01-25 09:08:00,27.0,17.1,30.15,South,180,0.0,0.0,66,0.00,CLR,SCT,0.00,WeatherDisplay:10.37,2013-01-25 14:08:00,
2013-01-25 09:12:00,27.0,17.5,30.15,South,180,2.3,0.0,67,0.00,CLR,SCT,0.00,WeatherDisplay:10.37,2013-01-25 14:12:00,
2013-01-25 09:15:00,27.2,17.7,30.15,South,180,0.0,0.0,67,0.00,CLR,SCT,0.00,WeatherDisplay:10.37,2013-01-25 14:15:00,
2013-01-25 09:16:00,27.2,17.3,30.15,South,180,0.0,0.0,66,0.00,CLR,SCT,0.00,WeatherDisplay:10.37,2013-01-25 14:16:00,
2013-01-25 09:19:00,27.2,17.7,30.16,South,180,0.0,0.0,67,0.00,CLR,SCT,0.00,WeatherDisplay:10.37,2013-01-25 14:19:00,
2013-01-25 09:20:00,27.2,17.7,30.15,South,180,0.0,0.0,67,0.00,CLR,SCT,0.00,WeatherDisplay:10.37,2013-01-25 14:20:00,
2013-01-25 09:24:00,27.2,17.7,30.16,South,180,0.0,0.0,67,0.00,CLR,SCT,0.00,WeatherDisplay:10.37,2013-01-25 14:24:00,
2013-01-25 09:25:00,27.2,17.7,30.16,South,180,0.0,0.0,67,0.00,CLR,SCT,0.00,WeatherDisplay:10.37,2013-01-25 14:25:00,
2013-01-25 09:26:00,27.2,17.7,30.15,South,180,0.0,0.0,67,0.00,CLR,SCT,0.00,WeatherDisplay:10.37,2013-01-25 14:26:00,
2013-01-25 09:30:00,27.3,18.1,30.14,South,180,0.0,0.0,68,0.00,CLR,SCT,0.00,WeatherDisplay:10.37,2013-01-25 14:30:00,
2013-01-25 09:31:00,27.3,18.1,30.14,South,180,0.0,0.0,68,0.00,CLR,SCT,0.00,WeatherDisplay:10.37,2013-01-25 14:31:00,
2013-01-25 09:32:00,27.3,18.1,30.14,South,180,0.0,0.0,68,0.00,CLR,SCT,0.00,WeatherDisplay:10.37,2013-01-25 14:32:00,
2013-01-25 09:36:00,27.3,18.1,30.12,South,180,0.0,0.0,68,0.00,CLR,SCT,0.00,WeatherDisplay:10.37,2013-01-25 14:36:00,
2013-01-25 09:39:00,27.5,18.3,30.13,South,180,0.0,0.0,68,0.00,CLR,SCT,0.00,WeatherDisplay:10.37,2013-01-25 14:39:00,
2013-01-25 09:41:00,27.5,18.3,30.13,South,180,0.0,0.0,68,0.00,CLR,SCT,0.00,WeatherDisplay:10.37,2013-01-25 14:41:00,
2013-01-25 09:44:00,27.5,18.3,30.13,South,180,0.0,0.0,68,0.00,CLR,SCT,0.00,WeatherDisplay:10.37,2013-01-25 14:44:00,
2013-01-25 09:46:00,27.5,18.3,30.13,South,180,0.0,0.0,68,0.00,CLR,SCT,0.00,WeatherDisplay:10.37,2013-01-25 14:46:00,
2013-01-25 09:51:00,27.6,18.8,30.13,South,180,0.0,0.0,69,0.00,CLR,SCT,0.00,WeatherDisplay:10.37,2013-01-25 14:51:00,
2013-01-25 09:55:00,27.6,18.8,30.15,South,180,0.0,0.0,69,0.00,CLR,SCT,0.00,WeatherDisplay:10.37,2013-01-25 14:55:00,
2013-01-25 09:56:00,27.6,18.8,30.15,South,180,0.0,0.0,69,0.00,CLR,SCT,0.00,WeatherDisplay:10.37,2013-01-25 14:56:00,
2013-01-25 10:00:00,27.8,18.6,30.14,South,180,0.0,0.0,68,0.00,CLR,SCT,0.00,WeatherDisplay:10.37,2013-01-25 15:00:00,
2013-01-25 10:02:00,27.8,18.9,30.14,South,180,0.0,0.0,69,0.00,CLR,SCT,0.00,WeatherDisplay:10.37,2013-01-25 15:02:00,
2013-01-25 10:05:00,27.8,18.9,30.13,South,180,0.0,0.0,69,0.00,CLR,SCT,0.00,WeatherDisplay:10.37,2013-01-25 15:05:00,
2013-01-25 10:10:00,27.9,19.0,30.14,South,180,0.0,0.0,69,0.00,CLR,SCT,0.00,WeatherDisplay:10.37,2013-01-25 15:10:00,
2013-01-25 10:11:00,27.9,19.0,30.14,South,180,0.0,0.0,69,0.00,CLR,SCT,0.00,WeatherDisplay:10.37,2013-01-25 15:11:00,
2013-01-25 10:14:00,27.9,19.0,30.14,South,180,0.0,0.0,69,0.00,CLR,SCT,0.00,WeatherDisplay:10.37,2013-01-25 15:14:00,
2013-01-25 10:15:00,27.9,19.0,30.14,South,180,0.0,0.0,69,0.00,CLR,SCT,0.00,WeatherDisplay:10.37,2013-01-25 15:15:00,
2013-01-25 10:16:00,27.9,19.0,30.13,South,180,0.0,0.0,69,0.00,CLR,SCT,0.00,WeatherDisplay:10.37,2013-01-25 15:16:00,
2013-01-25 10:21:00,28.1,19.2,30.12,South,180,0.0,0.0,69,0.00,CLR,SCT,0.00,WeatherDisplay:10.37,2013-01-25 15:21:00,
2013-01-25 10:25:00,28.1,19.2,30.12,South,180,0.0,0.0,69,0.00,CLR,SCT,0.00,WeatherDisplay:10.37,2013-01-25 15:25:00,
2013-01-25 10:26:00,28.1,19.2,30.12,South,180,0.0,0.0,69,0.00,CLR,SCT,0.00,WeatherDisplay:10.37,2013-01-25 15:26:00,
2013-01-25 10:31:00,28.2,19.3,30.12,South,180,0.0,0.0,69,0.00,CLR,SCT,0.00,WeatherDisplay:10.37,2013-01-25 15:31:00,
2013-01-25 10:32:00,28.2,19.3,30.12,South,180,0.0,0.0,69,0.00,CLR,SCT,0.00,WeatherDisplay:10.37,2013-01-25 15:32:00,
2013-01-25 10:33:00,28.2,19.3,30.12,South,180,0.0,0.0,69,0.00,CLR,SCT,0.00,WeatherDisplay:10.37,2013-01-25 15:33:00,
2013-01-25 10:37:00,28.4,19.5,30.11,South,180,0.0,0.0,69,0.00,CLR,SCT,0.00,WeatherDisplay:10.37,2013-01-25 15:37:00,
2013-01-25 10:39:00,28.4,19.9,30.11,South,180,0.0,0.0,70,0.00,CLR,SCT,0.00,WeatherDisplay:10.37,2013-01-25 15:39:00,
2013-01-25 10:44:00,28.5,19.6,30.10,South,180,0.0,0.0,69,0.00,CLR,SCT,0.00,WeatherDisplay:10.37,2013-01-25 15:44:00,
2013-01-25 10:49:00,28.5,20.0,30.10,South,180,0.0,0.0,70,0.00,CLR,SCT,0.00,WeatherDisplay:10.37,2013-01-25 15:49:00,
2013-01-25 10:50:00,28.5,20.0,30.09,South,180,0.0,0.0,70,0.00,CLR,SCT,0.00,WeatherDisplay:10.37,2013-01-25 15:50:00,
2013-01-25 10:52:00,28.5,20.0,30.09,South,180,0.0,0.0,70,0.00,CLR,SCT,0.00,WeatherDisplay:10.37,2013-01-25 15:52:00,
2013-01-25 10:54:00,28.7,20.1,30.09,South,180,0.0,0.0,70,0.00,CLR,SCT,0.00,WeatherDisplay:10.37,2013-01-25 15:54:00,
2013-01-25 10:58:00,28.7,20.1,30.09,South,180,0.0,0.0,70,0.00,CLR,SCT,0.00,WeatherDisplay:10.37,2013-01-25 15:58:00,
2013-01-25 10:59:00,28.7,20.1,30.09,South,180,0.0,0.0,70,0.00,CLR,SCT,0.00,WeatherDisplay:10.37,2013-01-25 15:59:00,
2013-01-25 11:04:00,28.8,20.6,30.09,South,182,0.0,0.0,71,0.00,CLR,SCT,0.00,WeatherDisplay:10.37,2013-01-25 16:04:00,
2013-01-25 11:08:00,28.8,20.6,30.09,South,182,0.0,0.0,71,0.00,CLR,SCT,0.00,WeatherDisplay:10.37,2013-01-25 16:08:00,
2013-01-25 11:09:00,28.8,20.6,30.09,SSW,202,0.0,0.0,71,0.00,CLR,SCT,0.00,WeatherDisplay:10.37,2013-01-25 16:09:00,
2013-01-25 11:12:00,28.8,20.6,30.09,SSW,206,0.0,0.0,71,0.00,CLR,SCT,0.00,WeatherDisplay:10.37,2013-01-25 16:12:00,
2013-01-25 11:13:00,28.8,20.6,30.10,SSW,206,0.0,0.0,71,0.00,CLR,SCT,0.00,WeatherDisplay:10.37,2013-01-25 16:13:00,
2013-01-25 11:17:00,28.8,20.6,30.09,SSW,207,0.0,0.0,71,0.00,CLR,SCT,0.00,WeatherDisplay:10.37,2013-01-25 16:17:00,
2013-01-25 11:18:00,28.8,20.6,30.10,SSW,207,0.0,0.0,71,0.00,CLR,SCT,0.00,WeatherDisplay:10.37,2013-01-25 16:18:00,
2013-01-25 11:19:00,29.0,20.8,30.10,SSW,207,0.0,0.0,71,0.00,CLR,SCT,0.00,WeatherDisplay:10.37,2013-01-25 16:19:00,
2013-01-25 11:22:00,29.0,20.8,30.09,SSW,207,0.0,0.0,71,0.00,CLR,SCT,0.00,WeatherDisplay:10.37,2013-01-25 16:22:00,
2013-01-25 11:23:00,29.0,20.8,30.10,SSW,207,0.0,0.0,71,0.00,CLR,SCT,0.00,WeatherDisplay:10.37,2013-01-25 16:23:00,
2013-01-25 11:24:00,29.0,20.8,30.10,SSW,207,0.0,0.0,71,0.00,CLR,SCT,0.00,WeatherDisplay:10.37,2013-01-25 16:24:00,
2013-01-25 11:26:00,29.0,20.8,30.10,SSW,207,0.0,0.0,71,0.00,CLR,SCT,0.00,WeatherDisplay:10.37,2013-01-25 16:26:00,
2013-01-25 11:28:00,29.0,21.1,30.10,SSW,207,0.0,0.0,72,0.00,CLR,SCT,0.00,WeatherDisplay:10.37,2013-01-25 16:28:00,
2013-01-25 11:31:00,29.1,21.2,30.10,SSW,207,0.0,0.0,72,0.00,CLR,SCT,0.00,WeatherDisplay:10.37,2013-01-25 16:31:00,
2013-01-25 11:32:00,29.1,21.2,30.11,WSW,239,0.0,0.0,72,0.00,CLR,SCT,0.00,WeatherDisplay:10.37,2013-01-25 16:32:00,
2013-01-25 11:34:00,29.1,21.2,30.11,WSW,239,0.0,0.0,72,0.00,CLR,SCT,0.00,WeatherDisplay:10.37,2013-01-25 16:34:00,
2013-01-25 11:37:00,29.3,21.4,30.11,WSW,257,0.0,0.0,72,0.00,CLR,SCT,0.00,WeatherDisplay:10.37,2013-01-25 16:37:00,
2013-01-25 11:38:00,29.3,21.4,30.11,WSW,257,0.0,0.0,72,0.00,CLR,SCT,0.00,WeatherDisplay:10.37,2013-01-25 16:38:00,
2013-01-25 11:39:00,29.3,21.7,30.11,WSW,257,0.0,0.0,73,0.00,CLR,SCT,0.00,WeatherDisplay:10.37,2013-01-25 16:39:00,
2013-01-25 11:43:00,29.4,21.5,30.10,WSW,257,0.0,0.0,72,0.00,CLR,SCT,0.00,WeatherDisplay:10.37,2013-01-25 16:43:00,
2013-01-25 11:44:00,29.4,21.5,30.09,WSW,257,0.0,0.0,72,0.00,CLR,SCT,0.00,WeatherDisplay:10.37,2013-01-25 16:44:00,
2013-01-25 11:45:00,29.4,21.5,30.09,WSW,257,0.0,0.0,72,0.00,CLR,SCT,0.00,WeatherDisplay:10.37,2013-01-25 16:45:00,
2013-01-25 11:49:00,29.3,21.7,30.09,West,275,0.0,0.0,73,0.01,RA,SCT,0.01,WeatherDisplay:10.37,2013-01-25 16:49:00,
2013-01-25 11:50:00,29.3,21.7,30.10,NNW,339,0.0,0.0,73,0.01,RA,SCT,0.01,WeatherDisplay:10.37,2013-01-25 16:50:00,
2013-01-25 11:54:00,29.3,21.7,30.10,NNW,348,4.6,4.6,73,0.01,RA,SCT,0.01,WeatherDisplay:10.37,2013-01-25 16:54:00,
2013-01-25 11:59:00,29.3,21.7,30.11,NNW,348,0.0,0.0,73,0.02,RA,SCT,0.02,WeatherDisplay:10.37,2013-01-25 16:59:00,
2013-01-25 12:00:00,29.3,21.7,30.11,NNW,348,0.0,0.0,73,0.02,RA,SCT,0.02,WeatherDisplay:10.37,2013-01-25 17:00:00,
2013-01-25 12:03:00,29.4,21.8,30.11,NNW,348,0.0,0.0,73,0.03,RA,SCT,0.03,WeatherDisplay:10.37,2013-01-25 17:03:00,
2013-01-25 12:05:00,29.4,21.8,30.09,NNW,348,0.0,0.0,73,0.03,RA,SCT,0.03,WeatherDisplay:10.37,2013-01-25 17:05:00,
2013-01-25 12:07:00,29.4,21.8,30.10,NNW,348,0.0,0.0,73,0.03,RA,SCT,0.03,WeatherDisplay:10.37,2013-01-25 17:07:00,
2013-01-25 12:10:00,29.4,21.8,30.10,NNW,348,0.0,0.0,73,0.04,RA,SCT,0.04,WeatherDisplay:10.37,2013-01-25 17:10:00,
2013-01-25 12:11:00,29.4,21.8,30.10,NNW,348,0.0,0.0,73,0.04,RA,SCT,0.04,WeatherDisplay:10.37,2013-01-25 17:11:00,
2013-01-25 12:15:00,29.4,21.8,30.10,NNW,348,0.0,0.0,73,0.05,RA,SCT,0.05,WeatherDisplay:10.37,2013-01-25 17:15:00,
2013-01-25 12:16:00,29.4,21.8,30.10,NNW,348,0.0,0.0,73,0.05,RA,SCT,0.05,WeatherDisplay:10.37,2013-01-25 17:16:00,
2013-01-25 12:20:00,29.4,21.8,30.10,NNW,348,0.0,0.0,73,0.06,RA,SCT,0.06,WeatherDisplay:10.37,2013-01-25 17:20:00,
2013-01-25 12:22:00,29.4,21.8,30.10,NNW,348,0.0,0.0,73,0.07,RA,SCT,0.07,WeatherDisplay:10.37,2013-01-25 17:22:00,
2013-01-25 12:25:00,29.5,21.9,30.10,NNW,348,0.0,0.0,73,0.08,RA,SCT,0.08,WeatherDisplay:10.37,2013-01-25 17:25:00,
2013-01-25 12:28:00,29.5,21.9,30.10,NNW,348,0.0,0.0,73,0.09,RA,SCT,0.09,WeatherDisplay:10.37,2013-01-25 17:28:00,
2013-01-25 12:30:00,29.5,21.9,30.10,NNW,348,0.0,0.0,73,0.09,RA,SCT,0.09,WeatherDisplay:10.37,2013-01-25 17:30:00,
2013-01-25 12:34:00,29.7,22.1,30.07,NNW,348,0.0,0.0,73,0.11,RA,SCT,0.11,WeatherDisplay:10.37,2013-01-25 17:34:00,
2013-01-25 12:35:00,29.7,22.1,30.07,NNW,348,0.0,0.0,73,0.11,RA,SCT,0.11,WeatherDisplay:10.37,2013-01-25 17:35:00,
2013-01-25 12:37:00,29.7,22.1,30.07,NNW,348,0.0,0.0,73,0.11,RA,SCT,0.11,WeatherDisplay:10.37,2013-01-25 17:37:00,
2013-01-25 12:40:00,29.7,22.1,30.07,NNW,348,0.0,0.0,73,0.12,RA,SCT,0.13,WeatherDisplay:10.37,2013-01-25 17:40:00,
2013-01-25 12:42:00,29.7,22.1,30.06,NNW,348,0.0,0.0,73,0.13,RA,SCT,0.13,WeatherDisplay:10.37,2013-01-25 17:42:00,
2013-01-25 12:43:00,29.7,22.1,30.07,NNW,348,0.0,0.0,73,0.13,RA,SCT,0.13,WeatherDisplay:10.37,2013-01-25 17:43:00,
2013-01-25 12:45:00,29.7,22.1,30.06,NNW,348,0.0,0.0,73,0.14,RA,SCT,0.14,WeatherDisplay:10.37,2013-01-25 17:45:00,
2013-01-25 12:48:00,29.7,22.1,30.07,NNW,348,0.0,0.0,73,0.13,RA,SCT,0.15,WeatherDisplay:10.37,2013-01-25 17:48:00,
2013-01-25 12:50:00,29.7,22.4,30.08,NNW,348,0.0,0.0,74,0.14,RA,SCT,0.15,WeatherDisplay:10.37,2013-01-25 17:50:00,
2013-01-25 12:51:00,29.7,22.4,30.07,NNW,348,0.0,0.0,74,0.14,RA,SCT,0.15,WeatherDisplay:10.37,2013-01-25 17:51:00,
2013-01-25 12:54:00,29.7,22.4,30.07,NNW,348,0.0,0.0,74,0.15,RA,SCT,0.16,WeatherDisplay:10.37,2013-01-25 17:54:00,
2013-01-25 12:56:00,29.7,22.4,30.07,NNW,348,0.0,0.0,74,0.15,RA,SCT,0.16,WeatherDisplay:10.37,2013-01-25 17:56:00,
2013-01-25 12:57:00,29.8,22.5,30.08,NNW,348,0.0,0.0,74,0.15,RA,SCT,0.16,WeatherDisplay:10.37,2013-01-25 17:57:00,
2013-01-25 12:58:00,29.8,22.8,30.09,NNW,348,0.0,0.0,75,0.14,RA,SCT,0.16,WeatherDisplay:10.37,2013-01-25 17:58:00,
2013-01-25 13:00:00,29.8,22.8,30.09,NNW,348,0.0,0.0,75,0.15,RA,SCT,0.17,WeatherDisplay:10.37,2013-01-25 18:00:00,
2013-01-25 13:03:00,30.0,23.0,30.07,NNW,348,0.0,0.0,75,0.14,RA,SCT,0.18,WeatherDisplay:10.37,2013-01-25 18:03:00,
2013-01-25 13:05:00,30.0,23.0,30.09,NNW,348,0.0,0.0,75,0.15,RA,SCT,0.18,WeatherDisplay:10.37,2013-01-25 18:05:00,
2013-01-25 13:06:00,30.1,23.1,30.09,NNW,348,0.0,0.0,75,0.15,RA,SCT,0.18,WeatherDisplay:10.37,2013-01-25 18:06:00,
2013-01-25 13:07:00,30.1,23.1,30.08,NNW,348,0.0,0.0,75,0.16,RA,SCT,0.19,WeatherDisplay:10.37,2013-01-25 18:07:00,
2013-01-25 13:09:00,30.1,23.1,30.07,NNW,348,0.0,0.0,75,0.15,RA,SCT,0.19,WeatherDisplay:10.37,2013-01-25 18:09:00,
2013-01-25 13:12:00,30.1,23.1,30.09,NNW,348,0.0,0.0,75,0.15,RA,SCT,0.19,WeatherDisplay:10.37,2013-01-25 18:12:00,
2013-01-25 13:14:00,30.1,23.1,30.09,NNW,348,0.0,0.0,75,0.15,RA,SCT,0.20,WeatherDisplay:10.37,2013-01-25 18:14:00,
2013-01-25 13:15:00,30.1,23.1,30.09,NNW,348,0.0,0.0,75,0.15,RA,SCT,0.20,WeatherDisplay:10.37,2013-01-25 18:15:00,
2013-01-25 13:16:00,30.3,23.3,30.09,NNW,348,0.0,0.0,75,0.15,RA,SCT,0.20,WeatherDisplay:10.37,2013-01-25 18:16:00,
2013-01-25 13:20:00,30.3,23.3,30.11,NNW,348,0.0,0.0,75,0.15,RA,SCT,0.21,WeatherDisplay:10.37,2013-01-25 18:20:00,
2013-01-25 13:22:00,30.3,23.3,30.11,NNW,348,0.0,0.0,75,0.15,RA,SCT,0.22,WeatherDisplay:10.37,2013-01-25 18:22:00,
2013-01-25 13:23:00,30.3,23.3,30.09,NNW,348,0.0,0.0,75,0.15,RA,SCT,0.22,WeatherDisplay:10.37,2013-01-25 18:23:00,
2013-01-25 13:26:00,30.4,23.4,30.10,NNW,348,0.0,0.0,75,0.15,RA,SCT,0.23,WeatherDisplay:10.37,2013-01-25 18:26:00,
2013-01-25 13:29:00,30.4,23.4,30.11,NNW,348,0.0,0.0,75,0.14,RA,SCT,0.23,WeatherDisplay:10.37,2013-01-25 18:29:00,
2013-01-25 13:31:00,30.6,23.6,30.10,NNW,348,0.0,0.0,75,0.14,RA,SCT,0.24,WeatherDisplay:10.37,2013-01-25 18:31:00,
2013-01-25 13:33:00,30.6,23.6,30.10,NNW,348,0.0,0.0,75,0.14,RA,SCT,0.24,WeatherDisplay:10.37,2013-01-25 18:33:00,
2013-01-25 13:34:00,30.6,23.6,30.10,NNW,348,0.0,0.0,75,0.13,RA,SCT,0.24,WeatherDisplay:10.37,2013-01-25 18:34:00,
2013-01-25 13:36:00,30.6,23.6,30.10,NNW,348,0.0,0.0,75,0.13,RA,SCT,0.24,WeatherDisplay:10.37,2013-01-25 18:36:00,
2013-01-25 13:38:00,30.7,23.7,30.10,NNW,348,0.0,0.0,75,0.12,RA,SCT,0.24,WeatherDisplay:10.37,2013-01-25 18:38:00,
2013-01-25 13:40:00,30.7,23.7,30.10,NNW,348,0.0,0.0,75,0.12,RA,SCT,0.24,WeatherDisplay:10.37,2013-01-25 18:40:00,
2013-01-25 13:41:00,30.7,23.7,30.10,NNW,348,0.0,0.0,75,0.12,RA,SCT,0.25,WeatherDisplay:10.37,2013-01-25 18:41:00,
2013-01-25 13:42:00,30.7,23.7,30.10,NNW,348,0.0,0.0,75,0.12,RA,SCT,0.25,WeatherDisplay:10.37,2013-01-25 18:42:00,
2013-01-25 13:47:00,30.9,23.9,30.08,NNW,348,0.0,0.0,75,0.11,RA,SCT,0.25,WeatherDisplay:10.37,2013-01-25 18:47:00,
2013-01-25 13:48:00,30.9,24.2,30.08,NNW,348,0.0,0.0,76,0.11,RA,SCT,0.25,WeatherDisplay:10.37,2013-01-25 18:48:00,
2013-01-25 13:51:00,30.9,24.2,30.08,NNW,348,0.0,0.0,76,0.10,CLR,SCT,0.25,WeatherDisplay:10.37,2013-01-25 18:51:00,
2013-01-25 13:54:00,30.7,24.0,30.08,NNW,348,0.0,0.0,76,0.09,CLR,SCT,0.25,WeatherDisplay:10.37,2013-01-25 18:54:00,
2013-01-25 13:55:00,30.7,24.0,30.08,NNW,348,0.0,0.0,76,0.09,CLR,SCT,0.25,WeatherDisplay:10.37,2013-01-25 18:55:00,
2013-01-25 13:58:00,30.7,24.0,30.09,NNW,348,0.0,0.0,76,0.09,CLR,SCT,0.25,WeatherDisplay:10.37,2013-01-25 18:58:00,
2013-01-25 13:59:00,30.7,24.0,30.09,NNW,348,0.0,0.0,76,0.08,CLR,SCT,0.25,WeatherDisplay:10.37,2013-01-25 18:59:00,
2013-01-25 14:00:00,30.7,24.0,30.09,NNW,348,0.0,0.0,76,0.08,CLR,SCT,0.25,WeatherDisplay:10.37,2013-01-25 19:00:00,
2013-01-25 14:01:00,30.7,24.0,30.09,NNW,348,0.0,0.0,76,0.08,CLR,SCT,0.25,WeatherDisplay:10.37,2013-01-25 19:01:00,
2013-01-25 14:03:00,30.7,24.0,30.08,NNW,348,0.0,0.0,76,0.08,CLR,SCT,0.25,WeatherDisplay:10.37,2013-01-25 19:03:00,
2013-01-25 14:04:00,30.7,24.0,30.08,NNW,348,0.0,0.0,76,0.07,CLR,SCT,0.25,WeatherDisplay:10.37,2013-01-25 19:04:00,
2013-01-25 14:06:00,30.7,24.0,30.08,NNW,348,0.0,0.0,76,0.08,RA,SCT,0.26,WeatherDisplay:10.37,2013-01-25 19:06:00,
2013-01-25 14:08:00,30.7,24.0,30.08,NNW,348,0.0,0.0,76,0.07,RA,SCT,0.26,WeatherDisplay:10.37,2013-01-25 19:08:00,
2013-01-25 14:10:00,30.9,24.5,30.08,NNW,348,0.0,0.0,77,0.07,RA,SCT,0.26,WeatherDisplay:10.37,2013-01-25 19:10:00,
2013-01-25 14:13:00,30.9,24.2,30.08,NNW,348,0.0,0.0,76,0.07,RA,SCT,0.26,WeatherDisplay:10.37,2013-01-25 19:13:00,
2013-01-25 14:15:00,30.7,24.0,30.08,NNW,348,0.0,0.0,76,0.06,RA,SCT,0.26,WeatherDisplay:10.37,2013-01-25 19:15:00,
2013-01-25 14:17:00,30.7,24.0,30.08,NNW,348,0.0,0.0,76,0.06,CLR,SCT,0.26,WeatherDisplay:10.37,2013-01-25 19:17:00,
2013-01-25 14:18:00,30.9,24.2,30.08,NNW,348,0.0,0.0,76,0.05,CLR,SCT,0.26,WeatherDisplay:10.37,2013-01-25 19:18:00,
2013-01-25 14:23:00,30.9,24.2,30.08,NNW,348,0.0,0.0,76,0.05,RA,SCT,0.27,WeatherDisplay:10.37,2013-01-25 19:23:00,
2013-01-25 14:24:00,31.0,24.3,30.08,NNW,348,0.0,0.0,76,0.05,RA,SCT,0.27,WeatherDisplay:10.37,2013-01-25 19:24:00,
2013-01-25 14:28:00,31.0,24.6,30.07,NNW,348,0.0,0.0,77,0.04,RA,SCT,0.27,WeatherDisplay:10.37,2013-01-25 19:28:00,
2013-01-25 14:29:00,31.0,24.6,30.07,NNW,348,0.0,0.0,77,0.04,RA,SCT,0.27,WeatherDisplay:10.37,2013-01-25 19:29:00,
2013-01-25 14:30:00,31.0,24.6,30.07,NNW,348,0.0,0.0,77,0.04,RA,SCT,0.27,WeatherDisplay:10.37,2013-01-25 19:30:00,
2013-01-25 14:34:00,31.0,24.6,30.07,NNW,348,0.0,0.0,77,0.03,CLR,SCT,0.27,WeatherDisplay:10.37,2013-01-25 19:34:00,
2013-01-25 14:36:00,31.0,24.6,30.07,NNW,348,0.0,0.0,77,0.03,CLR,SCT,0.27,WeatherDisplay:10.37,2013-01-25 19:36:00,
2013-01-25 14:38:00,31.0,24.6,30.07,NNW,348,0.0,0.0,77,0.03,CLR,SCT,0.27,WeatherDisplay:10.37,2013-01-25 19:38:00,
2013-01-25 14:39:00,31.0,24.9,30.07,NNW,348,0.0,0.0,78,0.03,CLR,SCT,0.27,WeatherDisplay:10.37,2013-01-25 19:39:00,
2013-01-25 14:43:00,31.0,24.9,30.07,NNW,348,0.0,0.0,78,0.03,RA,SCT,0.28,WeatherDisplay:10.37,2013-01-25 19:43:00,
2013-01-25 14:44:00,31.0,24.9,30.06,NNW,348,0.0,0.0,78,0.03,RA,SCT,0.28,WeatherDisplay:10.37,2013-01-25 19:44:00,
2013-01-25 14:48:00,31.0,24.9,30.05,NNW,348,0.0,0.0,78,0.03,RA,SCT,0.28,WeatherDisplay:10.37,2013-01-25 19:48:00,
2013-01-25 14:50:00,31.0,24.9,30.06,NNW,348,0.0,0.0,78,0.03,RA,SCT,0.28,WeatherDisplay:10.37,2013-01-25 19:50:00,
2013-01-25 14:54:00,31.0,24.9,30.05,NNW,348,0.0,0.0,78,0.03,CLR,SCT,0.28,WeatherDisplay:10.37,2013-01-25 19:54:00,
2013-01-25 14:56:00,31.0,25.2,30.05,NNW,348,0.0,0.0,79,0.03,CLR,SCT,0.28,WeatherDisplay:10.37,2013-01-25 19:56:00,
2013-01-25 14:59:00,30.9,25.2,30.05,NNW,348,0.0,0.0,79,0.03,CLR,SCT,0.28,WeatherDisplay:10.37,2013-01-25 19:59:00,
2013-01-25 15:00:00,30.9,25.2,30.05,NNW,348,0.0,0.0,79,0.03,CLR,SCT,0.28,WeatherDisplay:10.37,2013-01-25 20:00:00,
2013-01-25 15:01:00,30.9,25.2,30.05,NNW,348,0.0,0.0,79,0.03,CLR,SCT,0.28,WeatherDisplay:10.37,2013-01-25 20:01:00,
2013-01-25 15:02:00,30.9,25.2,30.05,NNW,348,0.0,0.0,79,0.03,CLR,SCT,0.28,WeatherDisplay:10.37,2013-01-25 20:02:00,
2013-01-25 15:05:00,30.9,25.2,30.05,NNW,348,0.0,0.0,79,0.03,CLR,SCT,0.28,WeatherDisplay:10.37,2013-01-25 20:05:00,
2013-01-25 15:06:00,30.9,25.2,30.05,NNW,348,0.0,0.0,79,0.02,CLR,SCT,0.28,WeatherDisplay:10.37,2013-01-25 20:06:00,
2013-01-25 15:08:00,30.9,25.2,30.05,NNW,348,0.0,0.0,79,0.02,CLR,SCT,0.28,WeatherDisplay:10.37,2013-01-25 20:08:00,
2013-01-25 15:10:00,30.9,25.2,30.05,NNW,348,0.0,0.0,79,0.02,CLR,SCT,0.28,WeatherDisplay:10.37,2013-01-25 20:10:00,
2013-01-25 15:12:00,30.9,25.2,30.06,NNW,348,0.0,0.0,79,0.02,CLR,SCT,0.28,WeatherDisplay:10.37,2013-01-25 20:12:00,
2013-01-25 15:13:00,30.9,25.2,30.05,NNW,348,0.0,0.0,79,0.02,CLR,SCT,0.28,WeatherDisplay:10.37,2013-01-25 20:13:00,
2013-01-25 15:14:00,30.9,25.2,30.05,NNW,348,0.0,0.0,79,0.02,CLR,SCT,0.28,WeatherDisplay:10.37,2013-01-25 20:14:00,
2013-01-25 15:15:00,30.9,25.2,30.05,NNW,348,0.0,0.0,79,0.02,CLR,SCT,0.28,WeatherDisplay:10.37,2013-01-25 20:15:00,
2013-01-25 15:20:00,31.0,25.2,30.06,NNW,348,0.0,0.0,79,0.02,CLR,SCT,0.28,WeatherDisplay:10.37,2013-01-25 20:20:00,
2013-01-25 15:21:00,31.0,25.2,30.06,NNW,348,0.0,0.0,79,0.02,CLR,SCT,0.28,WeatherDisplay:10.37,2013-01-25 20:21:00,
2013-01-25 15:22:00,31.0,25.2,30.06,NNW,348,0.0,0.0,79,0.02,CLR,SCT,0.28,WeatherDisplay:10.37,2013-01-25 20:22:00,
2013-01-25 15:23:00,31.0,25.2,30.07,NNW,348,0.0,0.0,79,0.01,CLR,SCT,0.28,WeatherDisplay:10.37,2013-01-25 20:23:00,
2013-01-25 15:28:00,31.0,24.9,30.06,NNW,348,0.0,0.0,78,0.01,CLR,SCT,0.28,WeatherDisplay:10.37,2013-01-25 20:28:00,
2013-01-25 15:29:00,31.0,24.9,30.06,NNW,348,0.0,0.0,78,0.01,CLR,SCT,0.28,WeatherDisplay:10.37,2013-01-25 20:29:00,
2013-01-25 15:31:00,31.0,24.9,30.06,NNW,348,0.0,0.0,78,0.01,CLR,SCT,0.28,WeatherDisplay:10.37,2013-01-25 20:31:00,
2013-01-25 15:36:00,31.0,24.9,30.06,NNW,348,0.0,0.0,78,0.01,CLR,SCT,0.28,WeatherDisplay:10.37,2013-01-25 20:36:00,
2013-01-25 15:37:00,31.0,24.9,30.05,NNW,348,0.0,0.0,78,0.01,CLR,SCT,0.28,WeatherDisplay:10.37,2013-01-25 20:37:00,
2013-01-25 15:38:00,31.0,24.9,30.05,NNW,348,0.0,0.0,78,0.01,CLR,SCT,0.28,WeatherDisplay:10.37,2013-01-25 20:38:00,
2013-01-25 15:42:00,31.2,25.4,30.05,NNW,348,0.0,0.0,79,0.00,CLR,SCT,0.28,WeatherDisplay:10.37,2013-01-25 20:42:00,
2013-01-25 15:43:00,31.2,25.1,30.06,NNW,348,0.0,0.0,78,0.00,CLR,SCT,0.28,WeatherDisplay:10.37,2013-01-25 20:43:00,
2013-01-25 15:46:00,31.2,25.1,30.06,NNW,348,0.0,0.0,78,0.00,CLR,SCT,0.28,WeatherDisplay:10.37,2013-01-25 20:46:00,
2013-01-25 15:47:00,31.2,25.1,30.06,NNW,348,0.0,0.0,78,0.00,CLR,SCT,0.28,WeatherDisplay:10.37,2013-01-25 20:47:00,
2013-01-25 15:49:00,31.2,25.1,30.06,NNW,348,0.0,0.0,78,0.00,CLR,SCT,0.28,WeatherDisplay:10.37,2013-01-25 20:49:00,
2013-01-25 15:52:00,31.2,25.1,30.06,NNW,348,0.0,0.0,78,0.00,CLR,SCT,0.28,WeatherDisplay:10.37,2013-01-25 20:52:00,
2013-01-25 15:54:00,31.2,25.1,30.06,NNW,348,0.0,0.0,78,0.00,CLR,SCT,0.28,WeatherDisplay:10.37,2013-01-25 20:54:00,
2013-01-25 15:57:00,31.2,25.1,30.05,NNW,348,0.0,0.0,78,0.00,CLR,SCT,0.28,WeatherDisplay:10.37,2013-01-25 20:57:00,
2013-01-25 16:01:00,31.2,25.4,30.05,NNW,348,0.0,0.0,79,0.00,CLR,SCT,0.28,WeatherDisplay:10.37,2013-01-25 21:01:00,
2013-01-25 16:02:00,31.2,25.4,30.05,NNW,348,0.0,0.0,79,0.00,CLR,SCT,0.28,WeatherDisplay:10.37,2013-01-25 21:02:00,
2013-01-25 16:03:00,31.2,25.4,30.05,NNW,348,0.0,0.0,79,0.00,CLR,SCT,0.28,WeatherDisplay:10.37,2013-01-25 21:03:00,
2013-01-25 16:08:00,31.2,25.4,30.05,NNW,348,0.0,0.0,79,0.00,CLR,SCT,0.28,WeatherDisplay:10.37,2013-01-25 21:08:00,
2013-01-25 16:12:00,31.2,25.4,30.05,NNW,348,0.0,0.0,79,0.00,CLR,SCT,0.28,WeatherDisplay:10.37,2013-01-25 21:12:00,
2013-01-25 16:13:00,31.2,25.4,30.05,NNW,348,0.0,0.0,79,0.00,CLR,SCT,0.28,WeatherDisplay:10.37,2013-01-25 21:13:00,
2013-01-25 16:18:00,31.2,25.1,30.06,NNW,348,0.0,0.0,78,0.00,CLR,SCT,0.28,WeatherDisplay:10.37,2013-01-25 21:18:00,
2013-01-25 16:20:00,31.3,25.5,30.06,NNW,348,0.0,0.0,79,0.00,CLR,SCT,0.28,WeatherDisplay:10.37,2013-01-25 21:20:00,
2013-01-25 16:23:00,31.3,25.5,30.06,NNW,348,0.0,0.0,79,0.00,CLR,SCT,0.28,WeatherDisplay:10.37,2013-01-25 21:23:00,
2013-01-25 16:25:00,31.3,25.5,30.07,NNW,348,0.0,0.0,79,0.00,CLR,SCT,0.28,WeatherDisplay:10.37,2013-01-25 21:25:00,
2013-01-25 16:28:00,31.3,25.5,30.07,NNW,348,0.0,0.0,79,0.00,CLR,SCT,0.28,WeatherDisplay:10.37,2013-01-25 21:28:00,
2013-01-25 16:30:00,31.3,25.2,30.07,NNW,348,0.0,0.0,78,0.00,CLR,SCT,0.28,WeatherDisplay:10.37,2013-01-25 21:30:00,
2013-01-25 16:33:00,31.3,25.2,30.07,NNW,348,0.0,0.0,78,0.00,CLR,SCT,0.28,WeatherDisplay:10.37,2013-01-25 21:33:00,
2013-01-25 16:35:00,31.3,25.2,30.07,NNW,348,0.0,0.0,78,0.00,CLR,SCT,0.28,WeatherDisplay:10.37,2013-01-25 21:35:00,
2013-01-25 16:38:00,31.3,25.2,30.07,NNW,348,0.0,0.0,78,0.00,CLR,SCT,0.28,WeatherDisplay:10.37,2013-01-25 21:38:00,
2013-01-25 16:41:00,31.3,25.5,30.07,NNW,348,0.0,0.0,79,0.00,CLR,SCT,0.28,WeatherDisplay:10.37,2013-01-25 21:41:00,
2013-01-25 16:43:00,31.3,25.5,30.07,NNW,348,0.0,0.0,79,0.00,CLR,SCT,0.28,WeatherDisplay:10.37,2013-01-25 21:43:00,
2013-01-25 16:46:00,31.3,25.2,30.07,NNW,348,0.0,0.0,78,0.00,CLR,SCT,0.28,WeatherDisplay:10.37,2013-01-25 21:46:00,
2013-01-25 16:48:00,31.3,25.2,30.07,NNW,348,0.0,0.0,78,0.00,CLR,SCT,0.28,WeatherDisplay:10.37,2013-01-25 21:48:00,
2013-01-25 16:53:00,31.3,25.5,30.07,NNW,348,0.0,0.0,79,0.00,CLR,SCT,0.28,WeatherDisplay:10.37,2013-01-25 21:53:00,
2013-01-25 16:54:00,31.3,25.5,30.07,NNW,348,0.0,0.0,79,0.00,CLR,SCT,0.28,WeatherDisplay:10.37,2013-01-25 21:54:00,
2013-01-25 16:58:00,31.3,25.5,30.08,NNW,348,0.0,0.0,79,0.00,CLR,SCT,0.28,WeatherDisplay:10.37,2013-01-25 21:58:00,
2013-01-25 17:01:00,31.5,25.7,30.07,NNW,348,0.0,0.0,79,0.00,CLR,SCT,0.28,WeatherDisplay:10.37,2013-01-25 22:01:00,
2013-01-25 17:05:00,31.5,25.7,30.07,NNW,348,0.0,0.0,79,0.00,CLR,SCT,0.28,WeatherDisplay:10.37,2013-01-25 22:05:00,
2013-01-25 17:06:00,31.5,25.7,30.08,NNW,348,0.0,0.0,79,0.00,CLR,SCT,0.28,WeatherDisplay:10.37,2013-01-25 22:06:00,
2013-01-25 17:10:00,31.5,25.7,30.08,NNW,348,0.0,0.0,79,0.00,CLR,SCT,0.28,WeatherDisplay:10.37,2013-01-25 22:10:00,
2013-01-25 17:12:00,31.5,25.7,30.08,NNW,348,0.0,0.0,79,0.00,CLR,SCT,0.28,WeatherDisplay:10.37,2013-01-25 22:12:00,
2013-01-25 17:15:00,31.5,25.7,30.08,NNW,348,0.0,0.0,79,0.00,CLR,SCT,0.28,WeatherDisplay:10.37,2013-01-25 22:15:00,
2013-01-25 17:19:00,31.5,25.7,30.08,NNW,348,0.0,0.0,79,0.00,CLR,SCT,0.28,WeatherDisplay:10.37,2013-01-25 22:19:00,
2013-01-25 17:20:00,31.5,25.7,30.08,NNW,348,0.0,0.0,79,0.00,CLR,SCT,0.28,WeatherDisplay:10.37,2013-01-25 22:20:00,
2013-01-25 17:24:00,31.6,25.8,30.08,NNW,348,0.0,0.0,79,0.00,CLR,SCT,0.28,WeatherDisplay:10.37,2013-01-25 22:24:00,
2013-01-25 17:25:00,31.6,25.8,30.08,NNW,348,0.0,0.0,79,0.00,CLR,SCT,0.28,WeatherDisplay:10.37,2013-01-25 22:25:00,
2013-01-25 17:30:00,31.6,25.8,30.08,NNW,348,0.0,0.0,79,0.00,CLR,SCT,0.28,WeatherDisplay:10.37,2013-01-25 22:30:00,
2013-01-25 17:32:00,31.6,26.1,30.08,NNW,348,0.0,0.0,80,0.00,CLR,SCT,0.28,WeatherDisplay:10.37,2013-01-25 22:32:00,
2013-01-25 17:36:00,31.8,26.3,30.08,NNW,348,0.0,0.0,80,0.00,CLR,SCT,0.28,WeatherDisplay:10.37,2013-01-25 22:36:00,
2013-01-25 17:37:00,31.8,26.3,30.08,NNW,348,0.0,0.0,80,0.00,CLR,SCT,0.28,WeatherDisplay:10.37,2013-01-25 22:37:00,
2013-01-25 17:38:00,31.8,26.3,30.08,NNW,348,0.0,0.0,80,0.00,CLR,SCT,0.28,WeatherDisplay:10.37,2013-01-25 22:38:00,
2013-01-25 17:43:00,31.8,26.3,30.08,NNW,348,0.0,0.0,80,0.00,CLR,SCT,0.28,WeatherDisplay:10.37,2013-01-25 22:43:00,
2013-01-25 17:47:00,31.8,26.3,30.08,NNW,348,0.0,0.0,80,0.00,CLR,SCT,0.28,WeatherDisplay:10.37,2013-01-25 22:47:00,
2013-01-25 17:48:00,31.8,26.3,30.08,NNW,348,0.0,0.0,80,0.00,CLR,SCT,0.28,WeatherDisplay:10.37,2013-01-25 22:48:00,
2013-01-25 17:53:00,31.8,26.3,30.08,NNW,348,0.0,0.0,80,0.00,CLR,SCT,0.28,WeatherDisplay:10.37,2013-01-25 22:53:00,
2013-01-25 17:54:00,31.8,26.3,30.08,NNW,348,0.0,0.0,80,0.00,CLR,SCT,0.28,WeatherDisplay:10.37,2013-01-25 22:54:00,
2013-01-25 17:58:00,31.8,26.6,30.08,NNW,348,0.0,0.0,81,0.00,CLR,SCT,0.28,WeatherDisplay:10.37,2013-01-25 22:58:00,
2013-01-25 18:01:00,31.8,26.6,30.08,NNW,348,0.0,0.0,81,0.00,,SCT,0.28,WeatherDisplay:10.37,2013-01-25 23:01:00,
2013-01-25 18:03:00,31.8,26.6,30.08,NNW,348,0.0,0.0,81,0.00,,SCT,0.28,WeatherDisplay:10.37,2013-01-25 23:03:00,
2013-01-25 18:06:00,31.9,26.7,30.08,NNW,348,0.0,0.0,81,0.00,,SCT,0.28,WeatherDisplay:10.37,2013-01-25 23:06:00,
2013-01-25 18:08:00,31.9,26.7,30.07,NNW,348,0.0,0.0,81,0.00,,SCT,0.28,WeatherDisplay:10.37,2013-01-25 23:08:00,
2013-01-25 18:11:00,31.9,26.7,30.07,NNW,348,0.0,0.0,81,0.00,,SCT,0.28,WeatherDisplay:10.37,2013-01-25 23:11:00,
2013-01-25 18:13:00,31.9,26.7,30.08,NNW,348,0.0,0.0,81,0.00,,SCT,0.28,WeatherDisplay:10.37,2013-01-25 23:13:00,
2013-01-25 18:16:00,31.9,26.7,30.08,NNW,348,0.0,0.0,81,0.00,,SCT,0.28,WeatherDisplay:10.37,2013-01-25 23:16:00,
2013-01-25 18:18:00,31.9,26.7,30.08,NNW,348,0.0,0.0,81,0.00,,SCT,0.28,WeatherDisplay:10.37,2013-01-25 23:18:00,
2013-01-25 18:21:00,31.9,26.7,30.08,NNW,348,0.0,0.0,81,0.00,,SCT,0.28,WeatherDisplay:10.37,2013-01-25 23:21:00,
2013-01-25 18:23:00,31.9,26.7,30.08,NNW,348,0.0,0.0,81,0.00,,SCT,0.28,WeatherDisplay:10.37,2013-01-25 23:23:00,
2013-01-25 18:24:00,31.9,26.7,30.08,NNW,348,0.0,0.0,81,0.00,,SCT,0.28,WeatherDisplay:10.37,2013-01-25 23:24:00,
2013-01-25 18:28:00,31.9,26.7,30.08,NNW,348,0.0,0.0,81,0.00,,SCT,0.28,WeatherDisplay:10.37,2013-01-25 23:28:00,
2013-01-25 18:29:00,31.9,26.7,30.08,NNW,348,0.0,0.0,81,0.00,,SCT,0.28,WeatherDisplay:10.37,2013-01-25 23:29:00,
2013-01-25 18:31:00,31.9,26.7,30.08,NNW,348,0.0,0.0,81,0.00,,SCT,0.28,WeatherDisplay:10.37,2013-01-25 23:31:00,
2013-01-25 18:35:00,31.9,26.7,30.08,NNW,348,0.0,0.0,81,0.00,,SCT,0.28,WeatherDisplay:10.37,2013-01-25 23:35:00,
2013-01-25 18:36:00,32.1,26.9,30.08,NNW,348,0.0,0.0,81,0.00,,SCT,0.28,WeatherDisplay:10.37,2013-01-25 23:36:00,
2013-01-25 18:41:00,32.1,26.9,30.08,NNW,348,0.0,0.0,81,0.00,,SCT,0.28,WeatherDisplay:10.37,2013-01-25 23:41:00,
2013-01-25 18:42:00,32.1,26.9,30.08,NNW,348,0.0,0.0,81,0.00,,SCT,0.28,WeatherDisplay:10.37,2013-01-25 23:42:00,
2013-01-25 18:46:00,32.1,26.9,30.08,NNW,348,0.0,0.0,81,0.00,,SCT,0.28,WeatherDisplay:10.37,2013-01-25 23:46:00,
2013-01-25 18:48:00,32.1,26.9,30.08,NNW,348,0.0,0.0,81,0.00,,SCT,0.28,WeatherDisplay:10.37,2013-01-25 23:48:00,
2013-01-25 18:51:00,32.1,27.2,30.09,NNW,348,0.0,0.0,82,0.00,,SCT,0.28,WeatherDisplay:10.37,2013-01-25 23:51:00,
2013-01-25 18:52:00,32.1,27.2,30.09,NNW,348,0.0,0.0,82,0.00,,SCT,0.28,WeatherDisplay:10.37,2013-01-25 23:52:00,
2013-01-25 18:53:00,32.1,27.2,30.09,NNW,348,0.0,0.0,82,0.00,,SCT,0.28,WeatherDisplay:10.37,2013-01-25 23:53:00,
2013-01-25 18:56:00,32.1,27.2,30.09,NNW,348,0.0,0.0,82,0.00,,SCT,0.28,WeatherDisplay:10.37,2013-01-25 23:56:00,
2013-01-25 18:59:00,32.1,27.2,30.09,NNW,348,0.0,0.0,82,0.00,,SCT,0.28,WeatherDisplay:10.37,2013-01-25 23:59:00,
2013-01-25 19:01:00,32.2,27.3,30.09,NNW,348,0.0,0.0,82,0.00,,SCT,0.28,WeatherDisplay:10.37,2013-01-26 00:01:00,
2013-01-25 19:02:00,32.2,27.3,30.09,NNW,348,0.0,0.0,82,0.00,,SCT,0.28,WeatherDisplay:10.37,2013-01-26 00:02:00,
2013-01-25 19:07:00,32.2,27.3,30.09,NNW,348,0.0,0.0,82,0.00,CLR,SCT,0.28,WeatherDisplay:10.37,2013-01-26 00:07:00,
2013-01-25 19:08:00,32.2,27.3,30.09,NNW,348,0.0,0.0,82,0.00,CLR,SCT,0.28,WeatherDisplay:10.37,2013-01-26 00:08:00,
2013-01-25 19:13:00,32.1,27.2,30.09,NNW,348,0.0,0.0,82,0.00,CLR,SCT,0.28,WeatherDisplay:10.37,2013-01-26 00:13:00,
2013-01-25 19:14:00,32.1,27.2,30.09,NNW,348,0.0,0.0,82,0.00,CLR,SCT,0.28,WeatherDisplay:10.37,2013-01-26 00:14:00,
2013-01-25 19:17:00,32.1,27.2,30.09,NNW,348,0.0,0.0,82,0.00,CLR,SCT,0.28,WeatherDisplay:10.37,2013-01-26 00:17:00,
2013-01-25 19:18:00,32.1,27.2,30.09,NNW,348,0.0,0.0,82,0.00,CLR,SCT,0.28,WeatherDisplay:10.37,2013-01-26 00:18:00,
2013-01-25 19:21:00,32.1,27.2,30.09,NNW,348,0.0,0.0,82,0.00,CLR,SCT,0.28,WeatherDisplay:10.37,2013-01-26 00:21:00,
2013-01-25 19:23:00,32.1,27.2,30.09,NNW,348,0.0,0.0,82,0.00,CLR,SCT,0.28,WeatherDisplay:10.37,2013-01-26 00:23:00,
2013-01-25 19:28:00,32.2,27.3,30.09,NNW,348,0.0,0.0,82,0.00,CLR,SCT,0.28,WeatherDisplay:10.37,2013-01-26 00:28:00,
2013-01-25 19:29:00,32.2,27.3,30.09,NNW,348,0.0,0.0,82,0.00,CLR,SCT,0.28,WeatherDisplay:10.37,2013-01-26 00:29:00,
2013-01-25 19:30:00,32.2,27.3,30.09,NNW,348,0.0,0.0,82,0.00,CLR,SCT,0.28,WeatherDisplay:10.37,2013-01-26 00:30:00,
2013-01-25 19:33:00,32.2,27.3,30.09,NNW,348,0.0,0.0,82,0.00,CLR,SCT,0.28,WeatherDisplay:10.37,2013-01-26 00:33:00,
2013-01-25 19:36:00,32.2,27.3,30.09,NNW,348,0.0,0.0,82,0.00,CLR,SCT,0.28,WeatherDisplay:10.37,2013-01-26 00:36:00,
2013-01-25 19:38:00,32.4,27.8,30.09,NNW,348,0.0,0.0,83,0.00,CLR,SCT,0.28,WeatherDisplay:10.37,2013-01-26 00:38:00,
2013-01-25 19:39:00,32.4,27.8,30.09,NNW,348,0.0,0.0,83,0.00,CLR,SCT,0.28,WeatherDisplay:10.37,2013-01-26 00:39:00,
2013-01-25 19:42:00,32.4,27.5,30.09,NNW,348,0.0,0.0,82,0.00,CLR,SCT,0.28,WeatherDisplay:10.37,2013-01-26 00:42:00,
2013-01-25 19:43:00,32.4,27.5,30.09,NNW,348,0.0,0.0,82,0.00,CLR,SCT,0.28,WeatherDisplay:10.37,2013-01-26 00:43:00,
2013-01-25 19:44:00,32.4,27.5,30.09,NNW,348,0.0,0.0,82,0.00,CLR,SCT,0.28,WeatherDisplay:10.37,2013-01-26 00:44:00,
2013-01-25 19:47:00,32.5,27.9,30.08,NNW,348,0.0,0.0,83,0.00,CLR,SCT,0.28,WeatherDisplay:10.37,2013-01-26 00:47:00,
2013-01-25 19:49:00,32.5,27.9,30.08,NNW,348,0.0,0.0,83,0.00,CLR,SCT,0.28,WeatherDisplay:10.37,2013-01-26 00:49:00,
2013-01-25 19:50:00,32.7,28.1,30.08,NNW,348,0.0,0.0,83,0.00,CLR,SCT,0.28,WeatherDisplay:10.37,2013-01-26 00:50:00,
2013-01-25 19:54:00,32.8,28.2,30.08,NNW,348,0.0,0.0,83,0.00,CLR,SCT,0.28,WeatherDisplay:10.37,2013-01-26 00:54:00,
2013-01-25 19:55:00,32.8,28.2,30.08,NNW,348,0.0,0.0,83,0.00,CLR,SCT,0.28,WeatherDisplay:10.37,2013-01-26 00:55:00,
2013-01-25 19:57:00,32.9,28.3,30.08,NNW,348,0.0,0.0,83,0.00,CLR,SCT,0.28,WeatherDisplay:10.37,2013-01-26 00:57:00,
2013-01-25 19:59:00,32.9,28.3,30.08,NNW,348,0.0,0.0,83,0.00,CLR,SCT,0.28,WeatherDisplay:10.37,2013-01-26 00:59:00,
2013-01-25 20:00:00,33.1,28.8,30.08,NNW,348,0.0,0.0,84,0.00,CLR,SCT,0.28,WeatherDisplay:10.37,2013-01-26 01:00:00,
2013-01-25 20:02:00,33.2,28.9,30.08,NNW,348,0.0,0.0,84,0.00,CLR,SCT,0.28,WeatherDisplay:10.37,2013-01-26 01:02:00,
2013-01-25 20:03:00,33.2,28.9,30.08,NNW,348,0.0,0.0,84,0.00,CLR,SCT,0.28,WeatherDisplay:10.37,2013-01-26 01:03:00,
2013-01-25 20:05:00,33.4,29.1,30.08,NNW,348,0.0,0.0,84,0.00,,SCT,0.28,WeatherDisplay:10.37,2013-01-26 01:05:00,
2013-01-25 20:07:00,33.4,29.1,30.08,NNW,348,0.0,0.0,84,0.00,,SCT,0.28,WeatherDisplay:10.37,2013-01-26 01:07:00,
2013-01-25 20:09:00,33.5,29.2,30.09,NNW,348,0.0,0.0,84,0.00,,SCT,0.28,WeatherDisplay:10.37,2013-01-26 01:09:00,
2013-01-25 20:11:00,33.5,29.2,30.09,NNW,348,0.0,0.0,84,0.00,,SCT,0.28,WeatherDisplay:10.37,2013-01-26 01:11:00,
2013-01-25 20:14:00,33.5,29.2,30.09,NNW,348,0.0,0.0,84,0.00,,SCT,0.29,WeatherDisplay:10.37,2013-01-26 01:14:00,
2013-01-25 20:15:00,33.5,29.2,30.09,NNW,348,0.0,0.0,84,0.01,RA,SCT,0.29,WeatherDisplay:10.37,2013-01-26 01:15:00,
2013-01-25 20:16:00,33.5,29.2,30.09,NNW,348,0.0,0.0,84,0.01,RA,SCT,0.29,WeatherDisplay:10.37,2013-01-26 01:16:00,
2013-01-25 20:18:00,33.7,29.4,30.09,NNW,348,0.0,0.0,84,0.01,RA,SCT,0.29,WeatherDisplay:10.37,2013-01-26 01:18:00,
2013-01-25 20:20:00,33.7,29.4,30.09,NNW,348,0.0,0.0,84,0.01,RA,SCT,0.29,WeatherDisplay:10.37,2013-01-26 01:20:00,
2013-01-25 20:21:00,33.7,29.4,30.09,NNW,348,0.0,0.0,84,0.01,RA,SCT,0.29,WeatherDisplay:10.37,2013-01-26 01:21:00,
2013-01-25 20:23:00,33.7,29.4,30.09,NNW,348,0.0,0.0,84,0.01,RA,SCT,0.29,WeatherDisplay:10.37,2013-01-26 01:23:00,
2013-01-25 20:26:00,33.7,29.4,30.09,NNW,348,0.0,0.0,84,0.01,,SCT,0.29,WeatherDisplay:10.37,2013-01-26 01:26:00,
2013-01-25 20:28:00,33.7,29.4,30.09,NNW,348,0.0,0.0,84,0.01,,SCT,0.29,WeatherDisplay:10.37,2013-01-26 01:28:00,
2013-01-25 20:31:00,33.7,29.4,30.09,NNW,348,0.0,0.0,84,0.01,,SCT,0.29,WeatherDisplay:10.37,2013-01-26 01:31:00,
2013-01-25 20:32:00,33.7,29.4,30.09,NNW,348,0.0,0.0,84,0.01,,SCT,0.29,WeatherDisplay:10.37,2013-01-26 01:32:00,
2013-01-25 20:33:00,33.7,29.4,30.09,NNW,348,0.0,0.0,84,0.01,,SCT,0.29,WeatherDisplay:10.37,2013-01-26 01:33:00,
2013-01-25 20:38:00,33.5,29.2,30.09,NNW,348,0.0,0.0,84,0.01,,SCT,0.29,WeatherDisplay:10.37,2013-01-26 01:38:00,
2013-01-25 20:39:00,33.5,29.2,30.09,NNW,348,0.0,0.0,84,0.01,,SCT,0.29,WeatherDisplay:10.37,2013-01-26 01:39:00,
2013-01-25 20:41:00,33.5,29.2,30.09,NNW,348,0.0,0.0,84,0.01,,SCT,0.29,WeatherDisplay:10.37,2013-01-26 01:41:00,
2013-01-25 20:42:00,33.5,29.2,30.09,NNW,348,0.0,0.0,84,0.01,,SCT,0.29,WeatherDisplay:10.37,2013-01-26 01:42:00,
2013-01-25 20:45:00,33.5,29.2,30.09,NNW,348,0.0,0.0,84,0.01,,SCT,0.29,WeatherDisplay:10.37,2013-01-26 01:45:00,
2013-01-25 20:47:00,33.5,29.2,30.09,NNW,348,0.0,0.0,84,0.01,,SCT,0.29,WeatherDisplay:10.37,2013-01-26 01:47:00,
2013-01-25 20:50:00,33.4,29.1,30.09,NNW,348,0.0,0.0,84,0.01,,SCT,0.29,WeatherDisplay:10.37,2013-01-26 01:50:00,
2013-01-25 20:52:00,33.4,29.1,30.09,NNW,348,0.0,0.0,84,0.01,,SCT,0.29,WeatherDisplay:10.37,2013-01-26 01:52:00,
2013-01-25 20:55:00,33.4,29.1,30.09,NNW,348,0.0,0.0,84,0.01,,SCT,0.29,WeatherDisplay:10.37,2013-01-26 01:55:00,
2013-01-25 20:58:00,33.2,28.9,30.09,NNW,348,0.0,0.0,84,0.01,,SCT,0.29,WeatherDisplay:10.37,2013-01-26 01:58:00,
2013-01-25 20:59:00,33.2,28.9,30.09,NNW,348,0.0,0.0,84,0.01,,SCT,0.29,WeatherDisplay:10.37,2013-01-26 01:59:00,
2013-01-25 21:00:00,33.2,28.9,30.09,NNW,348,0.0,0.0,84,0.01,,SCT,0.29,WeatherDisplay:10.37,2013-01-26 02:00:00,
2013-01-25 21:05:00,33.2,28.9,30.10,NNW,348,0.0,0.0,84,0.01,,SCT,0.29,WeatherDisplay:10.37,2013-01-26 02:05:00,
2013-01-25 21:07:00,33.2,28.9,30.10,NNW,348,0.0,0.0,84,0.01,,SCT,0.29,WeatherDisplay:10.37,2013-01-26 02:07:00,
2013-01-25 21:08:00,33.2,28.9,30.10,NNW,348,0.0,0.0,84,0.01,,SCT,0.29,WeatherDisplay:10.37,2013-01-26 02:08:00,
2013-01-25 21:09:00,33.2,28.9,30.10,NNW,348,0.0,0.0,84,0.01,,SCT,0.29,WeatherDisplay:10.37,2013-01-26 02:09:00,
2013-01-25 21:14:00,33.1,28.8,30.10,NNW,348,0.0,0.0,84,0.01,,SCT,0.29,WeatherDisplay:10.37,2013-01-26 02:14:00,
2013-01-25 21:15:00,33.1,28.8,30.10,NNW,348,0.0,0.0,84,0.00,,SCT,0.29,WeatherDisplay:10.37,2013-01-26 02:15:00,
2013-01-25 21:16:00,33.1,28.8,30.10,NNW,348,0.0,0.0,84,0.00,,SCT,0.29,WeatherDisplay:10.37,2013-01-26 02:16:00,
2013-01-25 21:18:00,33.1,28.8,30.10,NNW,348,0.0,0.0,84,0.00,,SCT,0.29,WeatherDisplay:10.37,2013-01-26 02:18:00,
2013-01-25 21:20:00,33.1,28.8,30.10,NNW,348,0.0,0.0,84,0.00,,SCT,0.29,WeatherDisplay:10.37,2013-01-26 02:20:00,
2013-01-25 21:22:00,33.1,28.8,30.10,NNW,348,0.0,0.0,84,0.00,,SCT,0.29,WeatherDisplay:10.37,2013-01-26 02:22:00,
2013-01-25 21:25:00,33.1,28.8,30.10,NNW,348,0.0,0.0,84,0.00,,SCT,0.29,WeatherDisplay:10.37,2013-01-26 02:25:00,
2013-01-25 21:29:00,33.1,28.8,30.10,NNW,348,0.0,0.0,84,0.00,,SCT,0.29,WeatherDisplay:10.37,2013-01-26 02:29:00,
2013-01-25 21:30:00,33.1,28.8,30.10,NNW,348,0.0,0.0,84,0.00,,SCT,0.29,WeatherDisplay:10.37,2013-01-26 02:30:00,
2013-01-25 21:33:00,33.2,28.9,30.10,NNW,348,0.0,0.0,84,0.00,,SCT,0.29,WeatherDisplay:10.37,2013-01-26 02:33:00,
2013-01-25 21:35:00,33.2,28.9,30.10,NNW,348,0.0,0.0,84,0.00,,SCT,0.29,WeatherDisplay:10.37,2013-01-26 02:35:00,
2013-01-25 21:38:00,33.2,28.9,30.10,NNW,348,0.0,0.0,84,0.00,,SCT,0.29,WeatherDisplay:10.37,2013-01-26 02:38:00,
2013-01-25 21:40:00,33.4,29.1,30.10,NNW,348,0.0,0.0,84,0.00,,SCT,0.29,WeatherDisplay:10.37,2013-01-26 02:40:00,
2013-01-25 21:43:00,33.4,29.1,30.10,NNW,348,0.0,0.0,84,0.00,,SCT,0.29,WeatherDisplay:10.37,2013-01-26 02:43:00,
2013-01-25 21:45:00,33.4,29.1,30.10,NNW,348,0.0,0.0,84,0.00,,SCT,0.29,WeatherDisplay:10.37,2013-01-26 02:45:00,
2013-01-25 21:46:00,33.4,29.1,30.10,NNW,348,0.0,0.0,84,0.00,,SCT,0.29,WeatherDisplay:10.37,2013-01-26 02:46:00,
2013-01-25 21:48:00,33.5,29.2,30.10,NNW,348,0.0,0.0,84,0.00,,SCT,0.29,WeatherDisplay:10.37,2013-01-26 02:48:00,
2013-01-25 21:50:00,33.5,29.2,30.10,NNW,348,0.0,0.0,84,0.00,,SCT,0.29,WeatherDisplay:10.37,2013-01-26 02:50:00,
2013-01-25 21:52:00,33.5,29.2,30.10,NNW,348,0.0,0.0,84,0.00,,SCT,0.29,WeatherDisplay:10.37,2013-01-26 02:52:00,
2013-01-25 21:54:00,33.5,29.2,30.10,NNW,348,0.0,0.0,84,0.00,,SCT,0.29,WeatherDisplay:10.37,2013-01-26 02:54:00,
2013-01-25 21:56:00,33.7,29.7,30.10,NNW,348,0.0,0.0,85,0.00,,SCT,0.29,WeatherDisplay:10.37,2013-01-26 02:56:00,
2013-01-25 21:57:00,33.7,29.7,30.10,NNW,348,0.0,0.0,85,0.00,,SCT,0.29,WeatherDisplay:10.37,2013-01-26 02:57:00,
2013-01-25 21:58:00,33.7,29.7,30.10,NNW,348,0.0,0.0,85,0.00,,SCT,0.29,WeatherDisplay:10.37,2013-01-26 02:58:00,
2013-01-25 22:00:00,33.7,29.7,30.10,NNW,348,0.0,0.0,85,0.00,,SCT,0.29,WeatherDisplay:10.37,2013-01-26 03:00:00,
2013-01-25 22:02:00,33.7,29.7,30.10,NNW,348,0.0,0.0,85,0.00,,SCT,0.29,WeatherDisplay:10.37,2013-01-26 03:02:00,
2013-01-25 22:04:00,33.8,29.8,30.11,NNW,348,0.0,0.0,85,0.00,,SCT,0.29,WeatherDisplay:10.37,2013-01-26 03:04:00,
2013-01-25 22:06:00,33.8,29.8,30.11,NNW,348,0.0,0.0,85,0.00,,SCT,0.29,WeatherDisplay:10.37,2013-01-26 03:06:00,
2013-01-25 22:07:00,33.8,29.8,30.11,NNW,348,0.0,0.0,85,0.00,,SCT,0.29,WeatherDisplay:10.37,2013-01-26 03:07:00,
2013-01-25 22:09:00,33.8,29.8,30.11,NNW,348,0.0,0.0,85,0.00,,SCT,0.29,WeatherDisplay:10.37,2013-01-26 03:09:00,
2013-01-25 22:11:00,33.8,29.8,30.11,NNW,348,0.0,0.0,85,0.00,,SCT,0.29,WeatherDisplay:10.37,2013-01-26 03:11:00,
2013-01-25 22:12:00,33.8,29.8,30.11,NNW,348,0.0,0.0,85,0.00,,SCT,0.29,WeatherDisplay:10.37,2013-01-26 03:12:00,
2013-01-25 22:14:00,34.0,30.0,30.11,NNW,348,0.0,0.0,85,0.00,,SCT,0.29,WeatherDisplay:10.37,2013-01-26 03:14:00,
2013-01-25 22:18:00,34.0,30.0,30.11,NNW,348,0.0,0.0,85,0.00,,SCT,0.29,WeatherDisplay:10.37,2013-01-26 03:18:00,
2013-01-25 22:23:00,34.0,30.0,30.10,NNW,348,0.0,0.0,85,0.00,,SCT,0.29,WeatherDisplay:10.37,2013-01-26 03:23:00,
2013-01-25 22:24:00,34.0,30.0,30.10,NNW,348,0.0,0.0,85,0.00,,SCT,0.29,WeatherDisplay:10.37,2013-01-26 03:24:00,
2013-01-25 22:25:00,34.0,30.0,30.10,NNW,348,0.0,0.0,85,0.00,,SCT,0.29,WeatherDisplay:10.37,2013-01-26 03:25:00,
2013-01-25 22:29:00,34.0,30.0,30.10,NNW,348,0.0,0.0,85,0.00,,SCT,0.29,WeatherDisplay:10.37,2013-01-26 03:29:00,
2013-01-25 22:31:00,34.0,30.0,30.10,NNW,348,0.0,0.0,85,0.00,,SCT,0.29,WeatherDisplay:10.37,2013-01-26 03:31:00,
2013-01-25 22:32:00,34.0,30.0,30.10,NNW,348,0.0,0.0,85,0.00,,SCT,0.29,WeatherDisplay:10.37,2013-01-26 03:32:00,
2013-01-25 22:34:00,34.0,30.0,30.10,NNW,348,0.0,0.0,85,0.00,,SCT,0.29,WeatherDisplay:10.37,2013-01-26 03:34:00,
2013-01-25 22:38:00,34.1,30.1,30.10,NNW,348,0.0,0.0,85,0.00,,SCT,0.29,WeatherDisplay:10.37,2013-01-26 03:38:00,
2013-01-25 22:39:00,34.1,30.1,30.10,NNW,348,0.0,0.0,85,0.00,,SCT,0.29,WeatherDisplay:10.37,2013-01-26 03:39:00,
2013-01-25 22:44:00,34.1,30.1,30.10,NNW,348,0.0,0.0,85,0.00,,SCT,0.30,WeatherDisplay:10.37,2013-01-26 03:44:00,
2013-01-25 22:46:00,34.1,30.1,30.10,NNW,348,0.0,0.0,85,0.01,RA,SCT,0.30,WeatherDisplay:10.37,2013-01-26 03:46:00,
2013-01-25 22:49:00,34.3,30.3,30.10,NNW,348,0.0,0.0,85,0.01,RA,SCT,0.30,WeatherDisplay:10.37,2013-01-26 03:49:00,
2013-01-25 22:53:00,34.3,30.3,30.10,NNW,348,0.0,0.0,85,0.01,RA,SCT,0.30,WeatherDisplay:10.37,2013-01-26 03:53:00,
2013-01-25 22:56:00,34.3,30.3,30.10,WNW,289,0.0,0.0,85,0.01,,SCT,0.30,WeatherDisplay:10.37,2013-01-26 03:56:00,
2013-01-25 22:58:00,34.3,30.5,30.10,WNW,288,0.0,0.0,86,0.01,,SCT,0.30,WeatherDisplay:10.37,2013-01-26 03:58:00,
2013-01-25 23:03:00,34.4,30.6,30.10,West,280,0.0,0.0,86,0.01,,SCT,0.30,WeatherDisplay:10.37,2013-01-26 04:03:00,
2013-01-25 23:04:00,34.4,30.6,30.11,West,280,0.0,0.0,86,0.01,,SCT,0.30,WeatherDisplay:10.37,2013-01-26 04:04:00,
2013-01-25 23:05:00,34.4,30.6,30.10,West,280,0.0,0.0,86,0.01,,SCT,0.30,WeatherDisplay:10.37,2013-01-26 04:05:00,
2013-01-25 23:07:00,34.4,30.6,30.10,West,280,0.0,0.0,86,0.01,,SCT,0.30,WeatherDisplay:10.37,2013-01-26 04:07:00,
2013-01-25 23:09:00,34.4,30.6,30.10,West,280,0.0,0.0,86,0.01,,SCT,0.30,WeatherDisplay:10.37,2013-01-26 04:09:00,
2013-01-25 23:12:00,34.4,30.6,30.11,West,278,0.0,0.0,86,0.01,,SCT,0.30,WeatherDisplay:10.37,2013-01-26 04:12:00,
2013-01-25 23:14:00,34.6,30.8,30.11,West,277,0.0,0.0,86,0.02,RA,SCT,0.31,WeatherDisplay:10.37,2013-01-26 04:14:00,
2013-01-25 23:17:00,34.6,30.8,30.10,West,277,0.0,0.0,86,0.02,RA,SCT,0.31,WeatherDisplay:10.37,2013-01-26 04:17:00,
2013-01-25 23:20:00,34.6,30.8,30.11,West,277,0.0,0.0,86,0.02,RA,SCT,0.31,WeatherDisplay:10.37,2013-01-26 04:20:00,
2013-01-25 23:24:00,34.6,30.8,30.11,West,277,0.0,0.0,86,0.02,,SCT,0.31,WeatherDisplay:10.37,2013-01-26 04:24:00,
2013-01-25 23:29:00,34.4,30.6,30.11,West,278,0.0,0.0,86,0.02,,SCT,0.31,WeatherDisplay:10.37,2013-01-26 04:29:00,
2013-01-25 23:32:00,34.4,30.6,30.11,West,277,0.0,0.0,86,0.02,,SCT,0.31,WeatherDisplay:10.37,2013-01-26 04:32:00,
2013-01-25 23:33:00,34.4,30.6,30.11,West,277,0.0,0.0,86,0.02,,SCT,0.31,WeatherDisplay:10.37,2013-01-26 04:33:00,
2013-01-25 23:34:00,34.4,30.6,30.11,West,277,0.0,0.0,86,0.02,,SCT,0.31,WeatherDisplay:10.37,2013-01-26 04:34:00,
2013-01-25 23:37:00,34.4,30.6,30.11,West,278,0.0,0.0,86,0.02,,SCT,0.31,WeatherDisplay:10.37,2013-01-26 04:37:00,
2013-01-25 23:38:00,34.4,30.6,30.11,West,278,0.0,0.0,86,0.02,,SCT,0.31,WeatherDisplay:10.37,2013-01-26 04:38:00,
2013-01-25 23:42:00,34.4,30.6,30.11,West,277,0.0,0.0,86,0.02,,SCT,0.31,WeatherDisplay:10.37,2013-01-26 04:42:00,
2013-01-25 23:43:00,34.3,30.5,30.11,West,277,0.0,0.0,86,0.02,,SCT,0.31,WeatherDisplay:10.37,2013-01-26 04:43:00,
2013-01-25 23:48:00,34.3,30.5,30.11,West,278,0.0,0.0,86,0.02,RA,SCT,0.32,WeatherDisplay:10.37,2013-01-26 04:48:00,
2013-01-25 23:49:00,34.3,30.5,30.11,West,278,0.0,0.0,86,0.02,RA,SCT,0.32,WeatherDisplay:10.37,2013-01-26 04:49:00,
2013-01-25 23:54:00,34.3,30.5,30.12,West,278,0.0,0.0,86,0.02,,SCT,0.32,WeatherDisplay:10.37,2013-01-26 04:54:00,
2013-01-25 23:55:00,34.1,30.4,30.12,West,277,0.0,0.0,86,0.02,,SCT,0.32,WeatherDisplay:10.37,2013-01-26 04:55:00,